Observation data for Odell on 01/17/2021      Previous  Date  Next       Current Mesonet Observations  Soil Data  Daily Summary Page  Observations in Plain Language
KOD1 170600Z 25006KT 02/M05 A3006 RMK A01 T00151046  RH  064%=      5-min Rain = 0
KOD1 170601Z 25006KT 01/M05 A3006 RMK A01 T00141046  RH  064%=      5-min Rain = 0
KOD1 170602Z 25005KT 01/M05 A3006 RMK A01 T00141046  RH  064%=      5-min Rain = 0
KOD1 170603Z 25005KT 01/M05 A3006 RMK A01 T00141046  RH  065%=      5-min Rain = 0
KOD1 170604Z 25005KT 01/M05 A3006 RMK A01 T00131045  RH  065%=      5-min Rain = 0
KOD1 170605Z 25005KT 01/M05 A3006 RMK A01 T00121045  RH  066%=      5-min Rain = 0
KOD1 170606Z 25006KT 01/M05 A3006 RMK A01 T00111045  RH  066%=      5-min Rain = 0
KOD1 170607Z 25005KT 01/M05 A3006 RMK A01 T00101045  RH  067%=      5-min Rain = 0
KOD1 170608Z 25005KT 01/M05 A3006 RMK A01 T00101045  RH  067%=      5-min Rain = 0
KOD1 170609Z 25006KT 01/M05 A3006 RMK A01 T00081045  RH  067%=      5-min Rain = 0
KOD1 170610Z 25006KT 01/M05 A3006 RMK A01 T00071045  RH  068%=      5-min Rain = 0
KOD1 170611Z 25006KT 01/M05 A3006 RMK A01 T00071045  RH  068%=      5-min Rain = 0
KOD1 170612Z 26006KT 01/M05 A3006 RMK A01 T00061045  RH  069%=      5-min Rain = 0
KOD1 170613Z 26006KT 01/M05 A3006 RMK A01 T00061045  RH  069%=      5-min Rain = 0
KOD1 170614Z 26006KT 01/M05 A3006 RMK A01 T00051045  RH  069%=      5-min Rain = 0
KOD1 170615Z 26006KT 01/M05 A3006 RMK A01 T00051045  RH  069%=      5-min Rain = 0
KOD1 170616Z 26006KT 01/M05 A3006 RMK A01 T00051045  RH  069%=      5-min Rain = 0
KOD1 170617Z 26006KT 01/M05 A3006 RMK A01 T00051045  RH  069%=      5-min Rain = 0
KOD1 170618Z 26006KT 01/M05 A3006 RMK A01 T00051046  RH  069%=      5-min Rain = 0
KOD1 170619Z 27006KT 01/M05 A3007 RMK A01 T00051046  RH  069%=      5-min Rain = 0
KOD1 170620Z 26006KT 01/M05 A3007 RMK A01 T00061045  RH  069%=      5-min Rain = 0
KOD1 170621Z 27006KT 01/M05 A3007 RMK A01 T00071046  RH  068%=      5-min Rain = 0
KOD1 170622Z 27006KT 01/M05 A3007 RMK A01 T00071046  RH  068%=      5-min Rain = 0
KOD1 170623Z 27006KT 01/M05 A3007 RMK A01 T00071046  RH  067%=      5-min Rain = 0
KOD1 170624Z 27006KT 01/M05 A3007 RMK A01 T00071046  RH  067%=      5-min Rain = 0
KOD1 170625Z 27006KT 01/M05 A3007 RMK A01 T00071047  RH  067%=      5-min Rain = 0
KOD1 170626Z 27006KT 01/M05 A3007 RMK A01 T00061047  RH  068%=      5-min Rain = 0
KOD1 170627Z 27006KT 01/M05 A3007 RMK A01 T00051047  RH  068%=      5-min Rain = 0
KOD1 170628Z 27006KT 01/M05 A3007 RMK A01 T00051047  RH  068%=      5-min Rain = 0
KOD1 170629Z 27006KT 01/M05 A3007 RMK A01 T00051047  RH  068%=      5-min Rain = 0
KOD1 170630Z 28006KT 00/M05 A3007 RMK A01 T00041047  RH  068%=      5-min Rain = 0
KOD1 170631Z 28006KT 00/M05 A3007 RMK A01 T00041047  RH  069%=      5-min Rain = 0
KOD1 170632Z 28007KT 00/M05 A3007 RMK A01 T00031048  RH  069%=      5-min Rain = 0
KOD1 170633Z 29007KT 00/M05 A3007 RMK A01 T00031047  RH  069%=      5-min Rain = 0
KOD1 170634Z 29007KT 01/M05 A3007 RMK A01 T00051046  RH  069%=      5-min Rain = 0
KOD1 170635Z 29007KT 01/M05 A3007 RMK A01 T00061046  RH  068%=      5-min Rain = 0
KOD1 170636Z 29007KT 01/M05 A3007 RMK A01 T00071046  RH  068%=      5-min Rain = 0
KOD1 170637Z 29008KT 01/M05 A3007 RMK A01 T00081046  RH  067%=      5-min Rain = 0
KOD1 170638Z 29008KT 01/M05 A3007 RMK A01 T00081046  RH  067%=      5-min Rain = 0
KOD1 170639Z 30008KT 01/M05 A3008 RMK A01 T00081045  RH  068%=      5-min Rain = 0
KOD1 170640Z 30009KT 01/M05 A3008 RMK A01 T00071045  RH  068%=      5-min Rain = 0
KOD1 170641Z 30009KT 01/M04 A3008 RMK A01 T00091044  RH  068%=      5-min Rain = 0
KOD1 170642Z 30009KT 01/M04 A3008 RMK A01 T00111043  RH  067%=      5-min Rain = 0
KOD1 170643Z 30009KT 01/M04 A3008 RMK A01 T00121043  RH  067%=      5-min Rain = 0
KOD1 170644Z 30009KT 01/M04 A3008 RMK A01 T00121043  RH  066%=      5-min Rain = 0
KOD1 170645Z 30009KT 01/M04 A3008 RMK A01 T00131043  RH  066%=      5-min Rain = 0
KOD1 170646Z 30009KT 01/M04 A3008 RMK A01 T00131043  RH  066%=      5-min Rain = 0
KOD1 170647Z 30009KT 01/M04 A3008 RMK A01 T00141043  RH  066%=      5-min Rain = 0
KOD1 170648Z 30008KT 01/M04 A3008 RMK A01 T00141043  RH  066%=      5-min Rain = 0
KOD1 170649Z 30008KT 01/M04 A3008 RMK A01 T00141042  RH  066%=      5-min Rain = 0
KOD1 170650Z 29009KT 01/M04 A3008 RMK A01 T00141042  RH  066%=      5-min Rain = 0
KOD1 170651Z 29008KT 01/M04 A3008 RMK A01 T00141041  RH  067%=      5-min Rain = 0
KOD1 170652Z 29008KT 01/M04 A3008 RMK A01 T00141041  RH  067%=      5-min Rain = 0
KOD1 170653Z 29008KT 02/M04 A3008 RMK A01 T00151040  RH  067%=      5-min Rain = 0
KOD1 170654Z 29009KT 02/M04 A3008 RMK A01 T00151040  RH  067%=      5-min Rain = 0
KOD1 170655Z 29008KT 02/M04 A3008 RMK A01 T00161039  RH  067%=      5-min Rain = 0
KOD1 170656Z 29009KT 02/M04 A3008 RMK A01 T00171039  RH  067%=      5-min Rain = 0
KOD1 170657Z 29009KT 02/M04 A3007 RMK A01 T00171038  RH  067%=      5-min Rain = 0
KOD1 170658Z 29009KT 02/M04 A3008 RMK A01 T00181038  RH  066%=      5-min Rain = 0
KOD1 170659Z 29009KT 02/M04 A3008 RMK A01 T00191038  RH  066%=      5-min Rain = 0
KOD1 170700Z 30009KT 02/M04 A3008 RMK A01 T00201038  RH  066%=      5-min Rain = 0
KOD1 170701Z 30009KT 02/M04 A3008 RMK A01 T00201039  RH  065%=      5-min Rain = 0
KOD1 170702Z 30009KT 02/M04 A3008 RMK A01 T00191038  RH  066%=      5-min Rain = 0
KOD1 170703Z 30009KT 02/M04 A3008 RMK A01 T00191038  RH  066%=      5-min Rain = 0
KOD1 170704Z 30009KT 02/M04 A3008 RMK A01 T00191038  RH  066%=      5-min Rain = 0
KOD1 170705Z 30010KT 02/M04 A3008 RMK A01 T00191038  RH  066%=      5-min Rain = 0
KOD1 170706Z 30009KT 02/M04 A3008 RMK A01 T00191038  RH  066%=      5-min Rain = 0
KOD1 170707Z 30009KT 02/M04 A3008 RMK A01 T00191038  RH  066%=      5-min Rain = 0
KOD1 170708Z 30009KT 02/M04 A3008 RMK A01 T00201037  RH  066%=      5-min Rain = 0
KOD1 170709Z 30010KT 02/M04 A3008 RMK A01 T00201037  RH  066%=      5-min Rain = 0
KOD1 170710Z 30009KT 02/M04 A3008 RMK A01 T00211036  RH  065%=      5-min Rain = 0
KOD1 170711Z 30009KT 02/M04 A3008 RMK A01 T00221037  RH  065%=      5-min Rain = 0
KOD1 170712Z 30009KT 02/M04 A3008 RMK A01 T00221036  RH  065%=      5-min Rain = 0
KOD1 170713Z 30009KT 02/M04 A3008 RMK A01 T00221036  RH  065%=      5-min Rain = 0
KOD1 170714Z 30009KT 02/M04 A3008 RMK A01 T00231035  RH  065%=      5-min Rain = 0
KOD1 170715Z 30009KT 02/M04 A3008 RMK A01 T00231035  RH  065%=      5-min Rain = 0
KOD1 170716Z 30009KT 02/M04 A3008 RMK A01 T00231035  RH  066%=      5-min Rain = 0
KOD1 170717Z 30009KT 02/M03 A3008 RMK A01 T00231034  RH  066%=      5-min Rain = 0
KOD1 170718Z 30009KT 02/M03 A3008 RMK A01 T00221034  RH  066%=      5-min Rain = 0
KOD1 170719Z 30008KT 02/M03 A3008 RMK A01 T00231034  RH  066%=      5-min Rain = 0
KOD1 170720Z 30009KT 02/M03 A3008 RMK A01 T00241034  RH  066%=      5-min Rain = 0
KOD1 170721Z 30008KT 02/M03 A3008 RMK A01 T00241034  RH  066%=      5-min Rain = 0
KOD1 170722Z 30008KT 02/M03 A3008 RMK A01 T00241034  RH  066%=      5-min Rain = 0
KOD1 170723Z 30008KT 02/M03 A3008 RMK A01 T00241034  RH  066%=      5-min Rain = 0
KOD1 170724Z 30008KT 02/M04 A3008 RMK A01 T00241035  RH  065%=      5-min Rain = 0
KOD1 170725Z 30008KT 02/M04 A3008 RMK A01 T00231035  RH  065%=      5-min Rain = 0
KOD1 170726Z 30008KT 02/M03 A3008 RMK A01 T00241034  RH  065%=      5-min Rain = 0
KOD1 170727Z 30008KT 02/M04 A3008 RMK A01 T00241035  RH  065%=      5-min Rain = 0
KOD1 170728Z 30008KT 02/M04 A3008 RMK A01 T00231035  RH  065%=      5-min Rain = 0
KOD1 170729Z 31009KT 02/M03 A3008 RMK A01 T00231034  RH  066%=      5-min Rain = 0
KOD1 170730Z 31009KT 02/M03 A3008 RMK A01 T00241034  RH  065%=      5-min Rain = 0
KOD1 170731Z 31009KT 03/M03 A3008 RMK A01 T00251034  RH  065%=      5-min Rain = 0
KOD1 170732Z 31009KT 03/M03 A3008 RMK A01 T00251034  RH  065%=      5-min Rain = 0
KOD1 170733Z 31010KT 02/M03 A3008 RMK A01 T00241034  RH  065%=      5-min Rain = 0
KOD1 170734Z 31010KT 03/M03 A3008 RMK A01 T00251033  RH  066%=      5-min Rain = 0
KOD1 170735Z 31010KT 03/M03 A3008 RMK A01 T00261033  RH  065%=      5-min Rain = 0
KOD1 170736Z 32010KT 03/M03 A3008 RMK A01 T00251034  RH  065%=      5-min Rain = 0
KOD1 170737Z 32010KT 03/M03 A3008 RMK A01 T00261033  RH  065%=      5-min Rain = 0
KOD1 170738Z 32010KT 03/M03 A3008 RMK A01 T00271033  RH  065%=      5-min Rain = 0
KOD1 170739Z 32010KT 03/M03 A3008 RMK A01 T00281033  RH  064%=      5-min Rain = 0
KOD1 170740Z 32010KT 03/M03 A3008 RMK A01 T00301033  RH  064%=      5-min Rain = 0
KOD1 170741Z 32010KT 03/M03 A3008 RMK A01 T00311033  RH  063%=      5-min Rain = 0
KOD1 170742Z 32010KT 03/M03 A3008 RMK A01 T00321032  RH  062%=      5-min Rain = 0
KOD1 170743Z 32010KT 03/M03 A3009 RMK A01 T00331032  RH  062%=      5-min Rain = 0
KOD1 170744Z 32010KT 03/M03 A3009 RMK A01 T00331032  RH  062%=      5-min Rain = 0
KOD1 170745Z 32011KT 03/M03 A3009 RMK A01 T00341032  RH  062%=      5-min Rain = 0
KOD1 170746Z 32010KT 04/M03 A3009 RMK A01 T00351031  RH  062%=      5-min Rain = 0
KOD1 170747Z 32010KT 04/M03 A3009 RMK A01 T00371031  RH  061%=      5-min Rain = 0
KOD1 170748Z 32010KT 04/M03 A3009 RMK A01 T00381031  RH  061%=      5-min Rain = 0
KOD1 170749Z 32010KT 04/M03 A3009 RMK A01 T00381031  RH  061%=      5-min Rain = 0
KOD1 170750Z 32010KT 04/M03 A3009 RMK A01 T00381031  RH  061%=      5-min Rain = 0
KOD1 170751Z 32010KT 04/M03 A3009 RMK A01 T00381031  RH  060%=      5-min Rain = 0
KOD1 170752Z 32011KT 04/M03 A3009 RMK A01 T00391031  RH  060%=      5-min Rain = 0
KOD1 170753Z 32011KT 04/M03 A3009 RMK A01 T00401032  RH  060%=      5-min Rain = 0
KOD1 170754Z 32011KT 04/M03 A3009 RMK A01 T00401032  RH  059%=      5-min Rain = 0
KOD1 170755Z 32011KT 04/M03 A3009 RMK A01 T00401032  RH  059%=      5-min Rain = 0
KOD1 170756Z 32010KT 04/M03 A3009 RMK A01 T00401032  RH  059%=      5-min Rain = 0
KOD1 170757Z 32011KT 04/M03 A3009 RMK A01 T00401032  RH  059%=      5-min Rain = 0
KOD1 170758Z 32010KT 04/M03 A3009 RMK A01 T00401032  RH  060%=      5-min Rain = 0
KOD1 170759Z 32011KT 04/M03 A3009 RMK A01 T00391032  RH  060%=      5-min Rain = 0
KOD1 170800Z 32009KT 04/M03 A3009 RMK A01 T00381031  RH  060%=      5-min Rain = 0
KOD1 170801Z 32009KT 04/M03 A3009 RMK A01 T00381031  RH  061%=      5-min Rain = 0
KOD1 170802Z 32009KT 04/M03 A3009 RMK A01 T00381031  RH  061%=      5-min Rain = 0
KOD1 170803Z 32010KT 04/M03 A3009 RMK A01 T00381031  RH  061%=      5-min Rain = 0
KOD1 170804Z 32009KT 04/M03 A3009 RMK A01 T00381031  RH  061%=      5-min Rain = 0
KOD1 170805Z 32009KT 04/M03 A3009 RMK A01 T00381031  RH  061%=      5-min Rain = 0
KOD1 170806Z 32009KT 04/M03 A3009 RMK A01 T00381031  RH  061%=      5-min Rain = 0
KOD1 170807Z 32009KT 04/M03 A3009 RMK A01 T00381031  RH  061%=      5-min Rain = 0
KOD1 170808Z 32009KT 04/M03 A3009 RMK A01 T00381030  RH  061%=      5-min Rain = 0
KOD1 170809Z 32010KT 04/M03 A3009 RMK A01 T00381030  RH  061%=      5-min Rain = 0
KOD1 170810Z 32010KT 04/M03 A3009 RMK A01 T00391030  RH  061%=      5-min Rain = 0
KOD1 170811Z 32010KT 04/M03 A3009 RMK A01 T00391030  RH  061%=      5-min Rain = 0
KOD1 170812Z 32009KT 04/M03 A3009 RMK A01 T00391030  RH  061%=      5-min Rain = 0
KOD1 170813Z 32009KT 04/M03 A3009 RMK A01 T00381031  RH  061%=      5-min Rain = 0
KOD1 170814Z 32009KT 04/M03 A3009 RMK A01 T00361031  RH  061%=      5-min Rain = 0
KOD1 170815Z 32009KT 04/M03 A3009 RMK A01 T00351031  RH  062%=      5-min Rain = 0
KOD1 170816Z 32009KT 03/M03 A3009 RMK A01 T00341031  RH  062%=      5-min Rain = 0
KOD1 170817Z 32009KT 03/M03 A3009 RMK A01 T00341031  RH  062%=      5-min Rain = 0
KOD1 170818Z 32009KT 03/M03 A3009 RMK A01 T00341031  RH  062%=      5-min Rain = 0
KOD1 170819Z 32009KT 03/M03 A3009 RMK A01 T00341031  RH  062%=      5-min Rain = 0
KOD1 170820Z 32008KT 03/M03 A3009 RMK A01 T00341031  RH  062%=      5-min Rain = 0
KOD1 170821Z 32009KT 03/M03 A3009 RMK A01 T00341032  RH  062%=      5-min Rain = 0
KOD1 170822Z 32009KT 03/M03 A3009 RMK A01 T00331032  RH  063%=      5-min Rain = 0
KOD1 170823Z 32009KT 03/M03 A3009 RMK A01 T00331032  RH  063%=      5-min Rain = 0
KOD1 170824Z 32008KT 03/M03 A3009 RMK A01 T00331031  RH  063%=      5-min Rain = 0
KOD1 170825Z 32009KT 03/M03 A301 RMK A01 T00331031  RH  063%=      5-min Rain = 0
KOD1 170826Z 32009KT 03/M03 A301 RMK A01 T00331031  RH  063%=      5-min Rain = 0
KOD1 170827Z 32009KT 03/M03 A301 RMK A01 T00331031  RH  063%=      5-min Rain = 0
KOD1 170828Z 32009KT 03/M03 A301 RMK A01 T00331031  RH  063%=      5-min Rain = 0
KOD1 170829Z 32009KT 03/M03 A301 RMK A01 T00331032  RH  062%=      5-min Rain = 0
KOD1 170830Z 32009KT 03/M03 A301 RMK A01 T00331032  RH  063%=      5-min Rain = 0
KOD1 170831Z 32009KT 03/M03 A301 RMK A01 T00331032  RH  063%=      5-min Rain = 0
KOD1 170832Z 32009KT 03/M03 A301 RMK A01 T00321032  RH  063%=      5-min Rain = 0
KOD1 170833Z 32009KT 03/M03 A301 RMK A01 T00321032  RH  063%=      5-min Rain = 0
KOD1 170834Z 32009KT 03/M03 A301 RMK A01 T00311033  RH  063%=      5-min Rain = 0
KOD1 170835Z 32009KT 03/M03 A301 RMK A01 T00311032  RH  063%=      5-min Rain = 0
KOD1 170836Z 32009KT 03/M03 A301 RMK A01 T00311032  RH  063%=      5-min Rain = 0
KOD1 170837Z 32009KT 03/M03 A301 RMK A01 T00311032  RH  063%=      5-min Rain = 0
KOD1 170838Z 32009KT 03/M03 A301 RMK A01 T00311032  RH  063%=      5-min Rain = 0
KOD1 170839Z 32009KT 03/M03 A301 RMK A01 T00301032  RH  063%=      5-min Rain = 0
KOD1 170840Z 32008KT 03/M03 A301 RMK A01 T00291033  RH  064%=      5-min Rain = 0
KOD1 170841Z 32008KT 03/M03 A301 RMK A01 T00291032  RH  064%=      5-min Rain = 0
KOD1 170842Z 32008KT 03/M03 A301 RMK A01 T00291033  RH  064%=      5-min Rain = 0
KOD1 170843Z 32008KT 03/M03 A301 RMK A01 T00291033  RH  064%=      5-min Rain = 0
KOD1 170844Z 32008KT 03/M03 A301 RMK A01 T00281033  RH  064%=      5-min Rain = 0
KOD1 170845Z 32008KT 03/M03 A301 RMK A01 T00271033  RH  064%=      5-min Rain = 0
KOD1 170846Z 32008KT 03/M03 A301 RMK A01 T00271033  RH  065%=      5-min Rain = 0
KOD1 170847Z 32008KT 03/M03 A301 RMK A01 T00261034  RH  065%=      5-min Rain = 0
KOD1 170848Z 32008KT 03/M03 A301 RMK A01 T00251033  RH  065%=      5-min Rain = 0
KOD1 170849Z 32008KT 03/M03 A301 RMK A01 T00251034  RH  065%=      5-min Rain = 0
KOD1 170850Z 32008KT 02/M03 A301 RMK A01 T00241034  RH  066%=      5-min Rain = 0
KOD1 170851Z 32008KT 02/M03 A301 RMK A01 T00241033  RH  066%=      5-min Rain = 0
KOD1 170852Z 32008KT 02/M03 A301 RMK A01 T00241033  RH  066%=      5-min Rain = 0
KOD1 170853Z 32008KT 02/M03 A301 RMK A01 T00231034  RH  066%=      5-min Rain = 0
KOD1 170854Z 32008KT 02/M03 A301 RMK A01 T00231034  RH  066%=      5-min Rain = 0
KOD1 170855Z 32007KT 02/M03 A301 RMK A01 T00231033  RH  066%=      5-min Rain = 0
KOD1 170856Z 32007KT 02/M03 A301 RMK A01 T00231034  RH  066%=      5-min Rain = 0
KOD1 170857Z 32007KT 02/M03 A301 RMK A01 T00221034  RH  066%=      5-min Rain = 0
KOD1 170858Z 32007KT 02/M04 A301 RMK A01 T00211035  RH  067%=      5-min Rain = 0
KOD1 170859Z 32008KT 02/M04 A301 RMK A01 T00201035  RH  067%=      5-min Rain = 0
KOD1 170900Z 32008KT 02/M04 A301 RMK A01 T00191035  RH  067%=      5-min Rain = 0
KOD1 170901Z 32007KT 02/M03 A301 RMK A01 T00191034  RH  068%=      5-min Rain = 0
KOD1 170902Z 32007KT 02/M03 A301 RMK A01 T00191034  RH  068%=      5-min Rain = 0
KOD1 170903Z 32008KT 02/M04 A301 RMK A01 T00181035  RH  068%=      5-min Rain = 0
KOD1 170904Z 32008KT 02/M04 A301 RMK A01 T00171036  RH  068%=      5-min Rain = 0
KOD1 170905Z 32007KT 02/M04 A301 RMK A01 T00161036  RH  068%=      5-min Rain = 0
KOD1 170906Z 32007KT 02/M04 A301 RMK A01 T00151036  RH  069%=      5-min Rain = 0
KOD1 170907Z 32007KT 01/M04 A301 RMK A01 T00141036  RH  069%=      5-min Rain = 0
KOD1 170908Z 32007KT 01/M04 A301 RMK A01 T00131036  RH  070%=      5-min Rain = 0
KOD1 170909Z 32008KT 01/M04 A301 RMK A01 T00121037  RH  070%=      5-min Rain = 0
KOD1 170910Z 32008KT 01/M04 A301 RMK A01 T00111037  RH  070%=      5-min Rain = 0
KOD1 170911Z 31007KT 01/M04 A301 RMK A01 T00101037  RH  071%=      5-min Rain = 0
KOD1 170912Z 32007KT 01/M04 A301 RMK A01 T00091037  RH  071%=      5-min Rain = 0
KOD1 170913Z 32007KT 01/M04 A301 RMK A01 T00081038  RH  071%=      5-min Rain = 0
KOD1 170914Z 32007KT 01/M04 A301 RMK A01 T00071038  RH  072%=      5-min Rain = 0
KOD1 170915Z 32007KT 01/M04 A301 RMK A01 T00061038  RH  072%=      5-min Rain = 0
KOD1 170916Z 32007KT 01/M04 A301 RMK A01 T00061038  RH  072%=      5-min Rain = 0
KOD1 170917Z 31007KT 01/M04 A301 RMK A01 T00051039  RH  073%=      5-min Rain = 0
KOD1 170918Z 31007KT 00/M04 A301 RMK A01 T00041039  RH  073%=      5-min Rain = 0
KOD1 170919Z 31007KT 00/M04 A301 RMK A01 T00041039  RH  073%=      5-min Rain = 0
KOD1 170920Z 31007KT 00/M04 A301 RMK A01 T00041039  RH  073%=      5-min Rain = 0
KOD1 170921Z 31007KT 00/M04 A301 RMK A01 T00031039  RH  073%=      5-min Rain = 0
KOD1 170922Z 31007KT 00/M04 A301 RMK A01 T00021040  RH  073%=      5-min Rain = 0
KOD1 170923Z 31007KT 00/M04 A301 RMK A01 T00021040  RH  074%=      5-min Rain = 0
KOD1 170924Z 31007KT 00/M04 A301 RMK A01 T00011040  RH  074%=      5-min Rain = 0
KOD1 170925Z 31007KT 00/04 A301 RMK A01 T00000-41  RH  074%=      5-min Rain = 0
KOD1 170926Z 31007KT 00/04 A301 RMK A01 T00000-40  RH  074%=      5-min Rain = 0
KOD1 170927Z 31007KT 00/04 A301 RMK A01 T00-00-41  RH  074%=      5-min Rain = 0
KOD1 170928Z 31007KT M00/M04 A301 RMK A01 T10011041  RH  074%=      5-min Rain = 0
KOD1 170929Z 31007KT M00/M04 A301 RMK A01 T10011041  RH  075%=      5-min Rain = 0
KOD1 170930Z 31007KT M00/M04 A301 RMK A01 T10011041  RH  075%=      5-min Rain = 0
KOD1 170931Z 31007KT M00/M04 A301 RMK A01 T10011040  RH  075%=      5-min Rain = 0
KOD1 170932Z 31007KT M00/M04 A301 RMK A01 T10011040  RH  075%=      5-min Rain = 0
KOD1 170933Z 31007KT M00/M04 A301 RMK A01 T10011041  RH  075%=      5-min Rain = 0
KOD1 170934Z 31008KT M00/M04 A301 RMK A01 T10011041  RH  075%=      5-min Rain = 0
KOD1 170935Z 31008KT M00/M04 A301 RMK A01 T10011040  RH  075%=      5-min Rain = 0
KOD1 170936Z 31008KT 00/04 A301 RMK A01 T00000-38  RH  076%=      5-min Rain = 0
KOD1 170937Z 31008KT 00/M04 A301 RMK A01 T00021037  RH  075%=      5-min Rain = 0
KOD1 170938Z 31008KT 00/M04 A301 RMK A01 T00031037  RH  075%=      5-min Rain = 0
KOD1 170939Z 31008KT 00/M04 A301 RMK A01 T00021038  RH  074%=      5-min Rain = 0
KOD1 170940Z 31008KT 00/M04 A301 RMK A01 T00021039  RH  074%=      5-min Rain = 0
KOD1 170941Z 31008KT 00/M04 A301 RMK A01 T00011040  RH  074%=      5-min Rain = 0
KOD1 170942Z 31008KT M00/M04 A301 RMK A01 T10011041  RH  075%=      5-min Rain = 0
KOD1 170943Z 31008KT M00/M04 A301 RMK A01 T10011040  RH  075%=      5-min Rain = 0
KOD1 170944Z 31008KT M00/M04 A301 RMK A01 T10021041  RH  075%=      5-min Rain = 0
KOD1 170945Z 31008KT M00/M04 A301 RMK A01 T10031041  RH  076%=      5-min Rain = 0
KOD1 170946Z 31008KT M00/M04 A301 RMK A01 T10041041  RH  076%=      5-min Rain = 0
KOD1 170947Z 31008KT M00/M04 A301 RMK A01 T10041040  RH  076%=      5-min Rain = 0
KOD1 170948Z 31008KT M00/M04 A301 RMK A01 T10041040  RH  077%=      5-min Rain = 0
KOD1 170949Z 31008KT M00/M04 A301 RMK A01 T10041039  RH  077%=      5-min Rain = 0
KOD1 170950Z 31008KT M00/M04 A301 RMK A01 T10041039  RH  077%=      5-min Rain = 0
KOD1 170951Z 31008KT M00/M04 A301 RMK A01 T10031038  RH  077%=      5-min Rain = 0
KOD1 170952Z 31009KT M00/M04 A301 RMK A01 T10021038  RH  077%=      5-min Rain = 0
KOD1 170953Z 31009KT M00/M04 A301 RMK A01 T10021038  RH  077%=      5-min Rain = 0
KOD1 170954Z 31009KT M00/M04 A301 RMK A01 T10021039  RH  077%=      5-min Rain = 0
KOD1 170955Z 31009KT M00/M04 A301 RMK A01 T10021039  RH  077%=      5-min Rain = 0
KOD1 170956Z 31009KT M00/M04 A301 RMK A01 T10021039  RH  077%=      5-min Rain = 0
KOD1 170957Z 31009KT M00/M04 A301 RMK A01 T10021038  RH  077%=      5-min Rain = 0
KOD1 170958Z 31009KT M00/M04 A301 RMK A01 T10011037  RH  077%=      5-min Rain = 0
KOD1 170959Z 31009KT 00/04 A301 RMK A01 T00-00-37  RH  077%=      5-min Rain = 0
KOD1 171000Z 31009KT 00/04 A301 RMK A01 T00000-37  RH  076%=      5-min Rain = 0
KOD1 171001Z 31009KT 00/M04 A301 RMK A01 T00011035  RH  076%=      5-min Rain = 0
KOD1 171002Z 31009KT 00/M04 A301 RMK A01 T00031035  RH  076%=      5-min Rain = 0
KOD1 171003Z 31009KT 00/M03 A301 RMK A01 T00041034  RH  076%=      5-min Rain = 0
KOD1 171004Z 31009KT 01/M03 A301 RMK A01 T00051034  RH  075%=      5-min Rain = 0
KOD1 171005Z 31009KT 01/M03 A301 RMK A01 T00061033  RH  075%=      5-min Rain = 0
KOD1 171006Z 31008KT 01/M03 A301 RMK A01 T00061033  RH  075%=      5-min Rain = 0
KOD1 171007Z 31008KT 01/M03 A301 RMK A01 T00071032  RH  075%=      5-min Rain = 0
KOD1 171008Z 31008KT 01/M03 A301 RMK A01 T00081032  RH  075%=      5-min Rain = 0
KOD1 171009Z 31008KT 01/M03 A301 RMK A01 T00081032  RH  075%=      5-min Rain = 0
KOD1 171010Z 31008KT 01/M03 A301 RMK A01 T00091031  RH  074%=      5-min Rain = 0
KOD1 171011Z 31008KT 01/M03 A301 RMK A01 T00091032  RH  074%=      5-min Rain = 0
KOD1 171012Z 31008KT 01/M03 A301 RMK A01 T00101031  RH  074%=      5-min Rain = 0
KOD1 171013Z 31008KT 01/M03 A301 RMK A01 T00101031  RH  074%=      5-min Rain = 0
KOD1 171014Z 31008KT 01/M03 A301 RMK A01 T00111030  RH  074%=      5-min Rain = 0
KOD1 171015Z 31008KT 01/M03 A301 RMK A01 T00111030  RH  074%=      5-min Rain = 0
KOD1 171016Z 31008KT 01/M03 A301 RMK A01 T00121029  RH  074%=      5-min Rain = 0
KOD1 171017Z 31007KT 01/M03 A301 RMK A01 T00121029  RH  074%=      5-min Rain = 0
KOD1 171018Z 31008KT 01/M03 A301 RMK A01 T00121029  RH  074%=      5-min Rain = 0
KOD1 171019Z 31008KT 01/M03 A301 RMK A01 T00131028  RH  074%=      5-min Rain = 0
KOD1 171020Z 31008KT 01/M03 A301 RMK A01 T00141027  RH  074%=      5-min Rain = 0
KOD1 171021Z 31008KT 01/M03 A301 RMK A01 T00141027  RH  074%=      5-min Rain = 0
KOD1 171022Z 31008KT 02/M03 A301 RMK A01 T00151026  RH  074%=      5-min Rain = 0
KOD1 171023Z 31008KT 02/M03 A301 RMK A01 T00161026  RH  074%=      5-min Rain = 0
KOD1 171024Z 31008KT 02/M03 A301 RMK A01 T00171025  RH  073%=      5-min Rain = 0
KOD1 171025Z 31008KT 02/M03 A301 RMK A01 T00181025  RH  073%=      5-min Rain = 0
KOD1 171026Z 31008KT 02/M03 A301 RMK A01 T00191025  RH  073%=      5-min Rain = 0
KOD1 171027Z 31008KT 02/M03 A301 RMK A01 T00201025  RH  072%=      5-min Rain = 0
KOD1 171028Z 31008KT 02/M03 A301 RMK A01 T00211025  RH  072%=      5-min Rain = 0
KOD1 171029Z 31008KT 02/M03 A301 RMK A01 T00221025  RH  071%=      5-min Rain = 0
KOD1 171030Z 31007KT 02/M03 A301 RMK A01 T00231025  RH  071%=      5-min Rain = 0
KOD1 171031Z 30007KT 02/M03 A301 RMK A01 T00241025  RH  070%=      5-min Rain = 0
KOD1 171032Z 30007KT 02/M03 A301 RMK A01 T00241026  RH  070%=      5-min Rain = 0
KOD1 171033Z 30007KT 03/M03 A301 RMK A01 T00251025  RH  070%=      5-min Rain = 0
KOD1 171034Z 31007KT 03/M03 A301 RMK A01 T00251025  RH  070%=      5-min Rain = 0
KOD1 171035Z 30007KT 03/M03 A301 RMK A01 T00251025  RH  070%=      5-min Rain = 0
KOD1 171036Z 30008KT 03/M02 A301 RMK A01 T00251024  RH  070%=      5-min Rain = 0
KOD1 171037Z 30007KT 03/M02 A301 RMK A01 T00261024  RH  070%=      5-min Rain = 0
KOD1 171038Z 30007KT 03/M02 A301 RMK A01 T00261024  RH  070%=      5-min Rain = 0
KOD1 171039Z 30007KT 03/M02 A301 RMK A01 T00271024  RH  069%=      5-min Rain = 0
KOD1 171040Z 30007KT 03/M02 A301 RMK A01 T00271024  RH  069%=      5-min Rain = 0
KOD1 171041Z 30007KT 03/M02 A301 RMK A01 T00271024  RH  069%=      5-min Rain = 0
KOD1 171042Z 30007KT 03/M02 A301 RMK A01 T00271024  RH  069%=      5-min Rain = 0
KOD1 171043Z 30006KT 03/M02 A301 RMK A01 T00271024  RH  069%=      5-min Rain = 0
KOD1 171044Z 30006KT 03/M02 A301 RMK A01 T00271023  RH  069%=      5-min Rain = 0
KOD1 171045Z 30007KT 03/M02 A301 RMK A01 T00271023  RH  069%=      5-min Rain = 0
KOD1 171046Z 30007KT 03/M02 A301 RMK A01 T00271023  RH  069%=      5-min Rain = 0
KOD1 171047Z 30007KT 03/M02 A301 RMK A01 T00271023  RH  070%=      5-min Rain = 0
KOD1 171048Z 30006KT 03/M02 A301 RMK A01 T00271022  RH  070%=      5-min Rain = 0
KOD1 171049Z 30006KT 03/M02 A301 RMK A01 T00271023  RH  070%=      5-min Rain = 0
KOD1 171050Z 30006KT 03/M02 A301 RMK A01 T00261023  RH  070%=      5-min Rain = 0
KOD1 171051Z 30007KT 03/M02 A301 RMK A01 T00261023  RH  070%=      5-min Rain = 0
KOD1 171052Z 30006KT 03/M02 A301 RMK A01 T00261023  RH  070%=      5-min Rain = 0
KOD1 171053Z 30006KT 03/M02 A301 RMK A01 T00261023  RH  070%=      5-min Rain = 0
KOD1 171054Z 31006KT 03/M02 A301 RMK A01 T00271024  RH  069%=      5-min Rain = 0
KOD1 171055Z 31006KT 03/M02 A301 RMK A01 T00271024  RH  069%=      5-min Rain = 0
KOD1 171056Z 30006KT 03/M02 A301 RMK A01 T00271024  RH  069%=      5-min Rain = 0
KOD1 171057Z 31006KT 03/M02 A301 RMK A01 T00271024  RH  069%=      5-min Rain = 0
KOD1 171058Z 31006KT 03/M02 A301 RMK A01 T00271024  RH  069%=      5-min Rain = 0
KOD1 171059Z 31006KT 03/M02 A301 RMK A01 T00271024  RH  069%=      5-min Rain = 0
KOD1 171100Z 31006KT 03/M02 A301 RMK A01 T00271024  RH  069%=      5-min Rain = 0
KOD1 171101Z 31007KT 03/M02 A301 RMK A01 T00271024  RH  069%=      5-min Rain = 0
KOD1 171102Z 30007KT 03/M02 A301 RMK A01 T00261024  RH  070%=      5-min Rain = 0
KOD1 171103Z 30007KT 03/M02 A301 RMK A01 T00261024  RH  070%=      5-min Rain = 0
KOD1 171104Z 30006KT 03/M02 A301 RMK A01 T00261024  RH  070%=      5-min Rain = 0
KOD1 171105Z 30007KT 03/M02 A301 RMK A01 T00251024  RH  070%=      5-min Rain = 0
KOD1 171106Z 30007KT 03/M02 A3011 RMK A01 T00251024  RH  070%=      5-min Rain = 0
KOD1 171107Z 31007KT 03/M02 A3011 RMK A01 T00251024  RH  070%=      5-min Rain = 0
KOD1 171108Z 31007KT 03/M02 A3011 RMK A01 T00251024  RH  070%=      5-min Rain = 0
KOD1 171109Z 31008KT 03/M02 A3011 RMK A01 T00251024  RH  070%=      5-min Rain = 0
KOD1 171110Z 31008KT 03/M02 A3011 RMK A01 T00251024  RH  070%=      5-min Rain = 0
KOD1 171111Z 31008KT 03/M02 A3011 RMK A01 T00251024  RH  070%=      5-min Rain = 0
KOD1 171112Z 31008KT 03/M02 A3011 RMK A01 T00251024  RH  070%=      5-min Rain = 0
KOD1 171113Z 31008KT 03/M02 A3011 RMK A01 T00251023  RH  071%=      5-min Rain = 0
KOD1 171114Z 31008KT 03/M02 A3011 RMK A01 T00251024  RH  071%=      5-min Rain = 0
KOD1 171115Z 32008KT 03/M02 A3011 RMK A01 T00251023  RH  070%=      5-min Rain = 0
KOD1 171116Z 32007KT 03/M02 A3011 RMK A01 T00261023  RH  070%=      5-min Rain = 0
KOD1 171117Z 32007KT 03/M02 A3011 RMK A01 T00271023  RH  069%=      5-min Rain = 0
KOD1 171118Z 32007KT 03/M02 A3011 RMK A01 T00281024  RH  068%=      5-min Rain = 0
KOD1 171119Z 32007KT 03/M03 A3011 RMK A01 T00291025  RH  068%=      5-min Rain = 0
KOD1 171120Z 32007KT 03/M03 A3011 RMK A01 T00291025  RH  068%=      5-min Rain = 0
KOD1 171121Z 32007KT 03/M03 A3011 RMK A01 T00291025  RH  068%=      5-min Rain = 0
KOD1 171122Z 32007KT 03/M03 A3011 RMK A01 T00291025  RH  068%=      5-min Rain = 0
KOD1 171123Z 32007KT 03/M03 A3011 RMK A01 T00301025  RH  067%=      5-min Rain = 0
KOD1 171124Z 32007KT 03/M03 A3011 RMK A01 T00311025  RH  067%=      5-min Rain = 0
KOD1 171125Z 32007KT 03/M03 A3011 RMK A01 T00321025  RH  067%=      5-min Rain = 0
KOD1 171126Z 32007KT 03/M02 A3011 RMK A01 T00321024  RH  066%=      5-min Rain = 0
KOD1 171127Z 32007KT 03/M02 A3011 RMK A01 T00311024  RH  067%=      5-min Rain = 0
KOD1 171128Z 32008KT 03/M02 A3011 RMK A01 T00311024  RH  067%=      5-min Rain = 0
KOD1 171129Z 32007KT 03/M02 A3011 RMK A01 T00311024  RH  067%=      5-min Rain = 0
KOD1 171130Z 32007KT 03/M02 A3011 RMK A01 T00321023  RH  067%=      5-min Rain = 0
KOD1 171131Z 32007KT 03/M02 A3011 RMK A01 T00321023  RH  067%=      5-min Rain = 0
KOD1 171132Z 32008KT 03/M02 A3011 RMK A01 T00331023  RH  066%=      5-min Rain = 0
KOD1 171133Z 32008KT 03/M02 A3011 RMK A01 T00341023  RH  066%=      5-min Rain = 0
KOD1 171134Z 32008KT 03/M02 A3011 RMK A01 T00341023  RH  066%=      5-min Rain = 0
KOD1 171135Z 32008KT 03/M02 A3011 RMK A01 T00341023  RH  066%=      5-min Rain = 0
KOD1 171136Z 32008KT 04/M02 A3011 RMK A01 T00351023  RH  066%=      5-min Rain = 0
KOD1 171137Z 32008KT 04/M02 A3011 RMK A01 T00351023  RH  065%=      5-min Rain = 0
KOD1 171138Z 32007KT 04/M02 A3011 RMK A01 T00361023  RH  065%=      5-min Rain = 0
KOD1 171139Z 32008KT 04/M02 A3011 RMK A01 T00371024  RH  065%=      5-min Rain = 0
KOD1 171140Z 32007KT 04/M02 A3011 RMK A01 T00371024  RH  064%=      5-min Rain = 0
KOD1 171141Z 32007KT 04/M02 A3011 RMK A01 T00371024  RH  064%=      5-min Rain = 0
KOD1 171142Z 32007KT 04/M02 A3011 RMK A01 T00371024  RH  064%=      5-min Rain = 0
KOD1 171143Z 32007KT 04/M02 A3011 RMK A01 T00371023  RH  065%=      5-min Rain = 0
KOD1 171144Z 32007KT 04/M02 A3011 RMK A01 T00371023  RH  065%=      5-min Rain = 0
KOD1 171145Z 32007KT 04/M02 A3011 RMK A01 T00361023  RH  065%=      5-min Rain = 0
KOD1 171146Z 32007KT 04/M02 A3011 RMK A01 T00361023  RH  065%=      5-min Rain = 0
KOD1 171147Z 32007KT 04/M02 A3011 RMK A01 T00371023  RH  065%=      5-min Rain = 0
KOD1 171148Z 32006KT 04/M02 A3011 RMK A01 T00361023  RH  065%=      5-min Rain = 0
KOD1 171149Z 32006KT 04/M02 A3011 RMK A01 T00361023  RH  065%=      5-min Rain = 0
KOD1 171150Z 32006KT 04/M02 A3011 RMK A01 T00361023  RH  065%=      5-min Rain = 0
KOD1 171151Z 32006KT 04/M02 A3011 RMK A01 T00351023  RH  066%=      5-min Rain = 0
KOD1 171152Z 32006KT 04/M02 A3011 RMK A01 T00351023  RH  066%=      5-min Rain = 0
KOD1 171153Z 32006KT 03/M02 A3011 RMK A01 T00341022  RH  066%=      5-min Rain = 0
KOD1 171154Z 32006KT 03/M02 A3011 RMK A01 T00341022  RH  067%=      5-min Rain = 0
KOD1 171155Z 32006KT 03/M02 A3011 RMK A01 T00331022  RH  067%=      5-min Rain = 0
KOD1 171156Z 31007KT 03/M02 A3011 RMK A01 T00331022  RH  067%=      5-min Rain = 0
KOD1 171157Z 31008KT 03/M02 A3011 RMK A01 T00331022  RH  067%=      5-min Rain = 0
KOD1 171158Z 31007KT 03/M02 A3011 RMK A01 T00331022  RH  067%=      5-min Rain = 0
KOD1 171159Z 31007KT 03/M02 A3011 RMK A01 T00341022  RH  067%=      5-min Rain = 0
KOD1 171200Z 31006KT 03/M02 A3011 RMK A01 T00341023  RH  066%=      5-min Rain = 0
KOD1 171201Z 31006KT 03/M02 A3011 RMK A01 T00341023  RH  066%=      5-min Rain = 0
KOD1 171202Z 31006KT 03/M02 A3012 RMK A01 T00341023  RH  066%=      5-min Rain = 0
KOD1 171203Z 31006KT 03/M02 A3012 RMK A01 T00331023  RH  067%=      5-min Rain = 0
KOD1 171204Z 31006KT 03/M02 A3012 RMK A01 T00331022  RH  067%=      5-min Rain = 0
KOD1 171205Z 31005KT 03/M02 A3012 RMK A01 T00321022  RH  067%=      5-min Rain = 0
KOD1 171206Z 31005KT 03/M02 A3012 RMK A01 T00321022  RH  068%=      5-min Rain = 0
KOD1 171207Z 31005KT 03/M02 A3012 RMK A01 T00311022  RH  068%=      5-min Rain = 0
KOD1 171208Z 32005KT 03/M02 A3012 RMK A01 T00301022  RH  069%=      5-min Rain = 0
KOD1 171209Z 31005KT 03/M02 A3012 RMK A01 T00301022  RH  069%=      5-min Rain = 0
KOD1 171210Z 31005KT 03/M02 A3012 RMK A01 T00291022  RH  069%=      5-min Rain = 0
KOD1 171211Z 31005KT 03/M02 A3012 RMK A01 T00291022  RH  069%=      5-min Rain = 0
KOD1 171212Z 31006KT 03/M02 A3012 RMK A01 T00291022  RH  069%=      5-min Rain = 0
KOD1 171213Z 31006KT 03/M02 A3012 RMK A01 T00291022  RH  069%=      5-min Rain = 0
KOD1 171214Z 31006KT 03/M02 A3012 RMK A01 T00291022  RH  069%=      5-min Rain = 0
KOD1 171215Z 31006KT 03/M02 A3012 RMK A01 T00291022  RH  069%=      5-min Rain = 0
KOD1 171216Z 31006KT 03/M02 A3012 RMK A01 T00291022  RH  069%=      5-min Rain = 0
KOD1 171217Z 31007KT 03/M02 A3012 RMK A01 T00291022  RH  069%=      5-min Rain = 0
KOD1 171218Z 31007KT 03/M02 A3012 RMK A01 T00291022  RH  069%=      5-min Rain = 0
KOD1 171219Z 31007KT 03/M02 A3012 RMK A01 T00301022  RH  069%=      5-min Rain = 0
KOD1 171220Z 31007KT 03/M02 A3012 RMK A01 T00311022  RH  068%=      5-min Rain = 0
KOD1 171221Z 31007KT 03/M02 A3012 RMK A01 T00311023  RH  068%=      5-min Rain = 0
KOD1 171222Z 31007KT 03/M02 A3012 RMK A01 T00311023  RH  068%=      5-min Rain = 0
KOD1 171223Z 31007KT 03/M02 A3012 RMK A01 T00311023  RH  068%=      5-min Rain = 0
KOD1 171224Z 31007KT 03/M02 A3012 RMK A01 T00311023  RH  068%=      5-min Rain = 0
KOD1 171225Z 31007KT 03/M02 A3012 RMK A01 T00311023  RH  068%=      5-min Rain = 0
KOD1 171226Z 31007KT 03/M02 A3012 RMK A01 T00311023  RH  068%=      5-min Rain = 0
KOD1 171227Z 31007KT 03/M02 A3013 RMK A01 T00311023  RH  068%=      5-min Rain = 0
KOD1 171228Z 31007KT 03/M02 A3013 RMK A01 T00301023  RH  068%=      5-min Rain = 0
KOD1 171229Z 30007KT 03/M02 A3013 RMK A01 T00301023  RH  068%=      5-min Rain = 0
KOD1 171230Z 30007KT 03/M02 A3013 RMK A01 T00301023  RH  068%=      5-min Rain = 0
KOD1 171231Z 30007KT 03/M02 A3013 RMK A01 T00301023  RH  068%=      5-min Rain = 0
KOD1 171232Z 30006KT 03/M02 A3013 RMK A01 T00301024  RH  068%=      5-min Rain = 0
KOD1 171233Z 30006KT 03/M02 A3013 RMK A01 T00301023  RH  068%=      5-min Rain = 0
KOD1 171234Z 30007KT 03/M02 A3013 RMK A01 T00301023  RH  068%=      5-min Rain = 0
KOD1 171235Z 30006KT 03/M02 A3013 RMK A01 T00291023  RH  068%=      5-min Rain = 0
KOD1 171236Z 30007KT 03/M02 A3013 RMK A01 T00291023  RH  069%=      5-min Rain = 0
KOD1 171237Z 30006KT 03/M02 A3013 RMK A01 T00291023  RH  069%=      5-min Rain = 0
KOD1 171238Z 30006KT 03/M02 A3013 RMK A01 T00291023  RH  069%=      5-min Rain = 0
KOD1 171239Z 30006KT 03/M02 A3013 RMK A01 T00291023  RH  069%=      5-min Rain = 0
KOD1 171240Z 30006KT 03/M02 A3013 RMK A01 T00291023  RH  069%=      5-min Rain = 0
KOD1 171241Z 30006KT 03/M02 A3013 RMK A01 T00291023  RH  069%=      5-min Rain = 0
KOD1 171242Z 30006KT 03/M02 A3013 RMK A01 T00291023  RH  069%=      5-min Rain = 0
KOD1 171243Z 30006KT 03/M02 A3013 RMK A01 T00281023  RH  069%=      5-min Rain = 0
KOD1 171244Z 29006KT 03/M02 A3013 RMK A01 T00291023  RH  069%=      5-min Rain = 0
KOD1 171245Z 30006KT 03/M02 A3014 RMK A01 T00291023  RH  069%=      5-min Rain = 0
KOD1 171246Z 30006KT 03/M02 A3014 RMK A01 T00291023  RH  069%=      5-min Rain = 0
KOD1 171247Z 29006KT 03/M02 A3014 RMK A01 T00291023  RH  069%=      5-min Rain = 0
KOD1 171248Z 29005KT 03/M02 A3014 RMK A01 T00291022  RH  069%=      5-min Rain = 0
KOD1 171249Z 29005KT 03/M02 A3014 RMK A01 T00291022  RH  069%=      5-min Rain = 0
KOD1 171250Z 29005KT 03/M02 A3014 RMK A01 T00281022  RH  069%=      5-min Rain = 0
KOD1 171251Z 30006KT 03/M02 A3014 RMK A01 T00281022  RH  070%=      5-min Rain = 0
KOD1 171252Z 29006KT 03/M02 A3014 RMK A01 T00281022  RH  070%=      5-min Rain = 0
KOD1 171253Z 29006KT 03/M02 A3014 RMK A01 T00281021  RH  070%=      5-min Rain = 0
KOD1 171254Z 30006KT 03/M02 A3014 RMK A01 T00271022  RH  070%=      5-min Rain = 0
KOD1 171255Z 29005KT 03/M02 A3014 RMK A01 T00271022  RH  070%=      5-min Rain = 0
KOD1 171256Z 30005KT 03/M02 A3014 RMK A01 T00271022  RH  070%=      5-min Rain = 0
KOD1 171257Z 30005KT 03/M02 A3014 RMK A01 T00271022  RH  070%=      5-min Rain = 0
KOD1 171258Z 30006KT 03/M02 A3014 RMK A01 T00271022  RH  070%=      5-min Rain = 0
KOD1 171259Z 31007KT 03/M02 A3014 RMK A01 T00271022  RH  070%=      5-min Rain = 0
KOD1 171300Z 30006KT 03/M02 A3014 RMK A01 T00281022  RH  070%=      5-min Rain = 0
KOD1 171301Z 30005KT 03/M02 A3014 RMK A01 T00291022  RH  069%=      5-min Rain = 0
KOD1 171302Z 30005KT 03/M02 A3014 RMK A01 T00301023  RH  068%=      5-min Rain = 0
KOD1 171303Z 30006KT 03/M02 A3014 RMK A01 T00301023  RH  068%=      5-min Rain = 0
KOD1 171304Z 30007KT 03/M02 A3014 RMK A01 T00301023  RH  068%=      5-min Rain = 0
KOD1 171305Z 30006KT 03/M02 A3014 RMK A01 T00301024  RH  068%=      5-min Rain = 0
KOD1 171306Z 30006KT 03/M02 A3015 RMK A01 T00301023  RH  068%=      5-min Rain = 0
KOD1 171307Z 29006KT 03/M02 A3015 RMK A01 T00301024  RH  068%=      5-min Rain = 0
KOD1 171308Z 30005KT 03/M02 A3015 RMK A01 T00291024  RH  068%=      5-min Rain = 0
KOD1 171309Z 29005KT 03/M02 A3015 RMK A01 T00291024  RH  068%=      5-min Rain = 0
KOD1 171310Z 29005KT 03/M02 A3015 RMK A01 T00291024  RH  068%=      5-min Rain = 0
KOD1 171311Z 30005KT 03/M02 A3015 RMK A01 T00281024  RH  069%=      5-min Rain = 0
KOD1 171312Z 29006KT 03/M02 A3015 RMK A01 T00281024  RH  069%=      5-min Rain = 0
KOD1 171313Z 29006KT 03/M02 A3015 RMK A01 T00271024  RH  069%=      5-min Rain = 0
KOD1 171314Z 29006KT 03/M02 A3015 RMK A01 T00271023  RH  069%=      5-min Rain = 0
KOD1 171315Z 30006KT 03/M02 A3015 RMK A01 T00271024  RH  070%=      5-min Rain = 0
KOD1 171316Z 29006KT 03/M02 A3015 RMK A01 T00261024  RH  070%=      5-min Rain = 0
KOD1 171317Z 30006KT 03/M02 A3015 RMK A01 T00261024  RH  070%=      5-min Rain = 0
KOD1 171318Z 30005KT 03/M02 A3015 RMK A01 T00261024  RH  070%=      5-min Rain = 0
KOD1 171319Z 29006KT 03/M02 A3015 RMK A01 T00261024  RH  069%=      5-min Rain = 0
KOD1 171320Z 30006KT 03/M03 A3015 RMK A01 T00261025  RH  069%=      5-min Rain = 0
KOD1 171321Z 30006KT 03/M03 A3015 RMK A01 T00261025  RH  069%=      5-min Rain = 0
KOD1 171322Z 30005KT 03/M03 A3015 RMK A01 T00251025  RH  070%=      5-min Rain = 0
KOD1 171323Z 30005KT 03/M03 A3015 RMK A01 T00251025  RH  070%=      5-min Rain = 0
KOD1 171324Z 30005KT 02/M03 A3015 RMK A01 T00241025  RH  070%=      5-min Rain = 0
KOD1 171325Z 30005KT 02/M03 A3015 RMK A01 T00241025  RH  070%=      5-min Rain = 0
KOD1 171326Z 29005KT 02/M03 A3015 RMK A01 T00241025  RH  070%=      5-min Rain = 0
KOD1 171327Z 29006KT 02/M03 A3015 RMK A01 T00231025  RH  070%=      5-min Rain = 0
KOD1 171328Z 29005KT 02/M03 A3015 RMK A01 T00221025  RH  071%=      5-min Rain = 0
KOD1 171329Z 29005KT 02/M03 A3015 RMK A01 T00221025  RH  071%=      5-min Rain = 0
KOD1 171330Z 29006KT 02/M03 A3015 RMK A01 T00211026  RH  071%=      5-min Rain = 0
KOD1 171331Z 29006KT 02/M03 A3015 RMK A01 T00201026  RH  072%=      5-min Rain = 0
KOD1 171332Z 29006KT 02/M03 A3015 RMK A01 T00201025  RH  072%=      5-min Rain = 0
KOD1 171333Z 29006KT 02/M03 A3015 RMK A01 T00201025  RH  072%=      5-min Rain = 0
KOD1 171334Z 29005KT 02/M03 A3015 RMK A01 T00191025  RH  072%=      5-min Rain = 0
KOD1 171335Z 29006KT 02/M03 A3015 RMK A01 T00201025  RH  072%=      5-min Rain = 0
KOD1 171336Z 29006KT 02/M03 A3015 RMK A01 T00201025  RH  072%=      5-min Rain = 0
KOD1 171337Z 28006KT 02/M03 A3015 RMK A01 T00191025  RH  072%=      5-min Rain = 0
KOD1 171338Z 28007KT 02/M03 A3015 RMK A01 T00191025  RH  072%=      5-min Rain = 0
KOD1 171339Z 28006KT 02/M03 A3015 RMK A01 T00191025  RH  073%=      5-min Rain = 0
KOD1 171340Z 29006KT 02/M03 A3015 RMK A01 T00191025  RH  073%=      5-min Rain = 0
KOD1 171341Z 29006KT 02/M03 A3015 RMK A01 T00191025  RH  073%=      5-min Rain = 0
KOD1 171342Z 29006KT 02/M03 A3015 RMK A01 T00181025  RH  073%=      5-min Rain = 0
KOD1 171343Z 29006KT 02/M03 A3015 RMK A01 T00181025  RH  073%=      5-min Rain = 0
KOD1 171344Z 29006KT 02/M03 A3015 RMK A01 T00171025  RH  073%=      5-min Rain = 0
KOD1 171345Z 29006KT 02/M03 A3015 RMK A01 T00171026  RH  073%=      5-min Rain = 0
KOD1 171346Z 29007KT 02/M03 A3015 RMK A01 T00161026  RH  074%=      5-min Rain = 0
KOD1 171347Z 29006KT 02/M03 A3015 RMK A01 T00151026  RH  074%=      5-min Rain = 0
KOD1 171348Z 29007KT 02/M03 A3015 RMK A01 T00151026  RH  074%=      5-min Rain = 0
KOD1 171349Z 29006KT 01/M03 A3015 RMK A01 T00141026  RH  074%=      5-min Rain = 0
KOD1 171350Z 29007KT 02/M03 A3015 RMK A01 T00151026  RH  074%=      5-min Rain = 0
KOD1 171351Z 29007KT 02/M03 A3015 RMK A01 T00151026  RH  074%=      5-min Rain = 0
KOD1 171352Z 29007KT 02/M03 A3015 RMK A01 T00151026  RH  074%=      5-min Rain = 0
KOD1 171353Z 29007KT 02/M03 A3015 RMK A01 T00151026  RH  074%=      5-min Rain = 0
KOD1 171354Z 29007KT 02/M03 A3015 RMK A01 T00151026  RH  074%=      5-min Rain = 0
KOD1 171355Z 29007KT 02/M03 A3015 RMK A01 T00151026  RH  074%=      5-min Rain = 0
KOD1 171356Z 29007KT 02/M03 A3015 RMK A01 T00151026  RH  074%=      5-min Rain = 0
KOD1 171357Z 29007KT 02/M03 A3015 RMK A01 T00161026  RH  074%=      5-min Rain = 0
KOD1 171358Z 30007KT 02/M03 A3015 RMK A01 T00161026  RH  074%=      5-min Rain = 0
KOD1 171359Z 30006KT 02/M03 A3015 RMK A01 T00161026  RH  073%=      5-min Rain = 0
KOD1 171400Z 30006KT 02/M03 A3015 RMK A01 T00171026  RH  073%=      5-min Rain = 0
KOD1 171401Z 29006KT 02/M03 A3015 RMK A01 T00171026  RH  073%=      5-min Rain = 0
KOD1 171402Z 30006KT 02/M03 A3015 RMK A01 T00171026  RH  073%=      5-min Rain = 0
KOD1 171403Z 30006KT 02/M03 A3015 RMK A01 T00171026  RH  073%=      5-min Rain = 0
KOD1 171404Z 30006KT 02/M03 A3015 RMK A01 T00161027  RH  073%=      5-min Rain = 0
KOD1 171405Z 30006KT 02/M03 A3016 RMK A01 T00161027  RH  073%=      5-min Rain = 0
KOD1 171406Z 30006KT 02/M03 A3016 RMK A01 T00161027  RH  073%=      5-min Rain = 0
KOD1 171407Z 30006KT 02/M03 A3016 RMK A01 T00161026  RH  074%=      5-min Rain = 0
KOD1 171408Z 30006KT 02/M03 A3016 RMK A01 T00161026  RH  073%=      5-min Rain = 0
KOD1 171409Z 29008KT 02/M03 A3016 RMK A01 T00161026  RH  074%=      5-min Rain = 0
KOD1 171410Z 29007KT 02/M03 A3016 RMK A01 T00161025  RH  074%=      5-min Rain = 0
KOD1 171411Z 29007KT 02/M03 A3016 RMK A01 T00171025  RH  074%=      5-min Rain = 0
KOD1 171412Z 29008KT 02/M03 A3016 RMK A01 T00171025  RH  074%=      5-min Rain = 0
KOD1 171413Z 30008KT 02/M03 A3016 RMK A01 T00171025  RH  074%=      5-min Rain = 0
KOD1 171414Z 29008KT 02/M03 A3016 RMK A01 T00181025  RH  073%=      5-min Rain = 0
KOD1 171415Z 29007KT 02/M03 A3016 RMK A01 T00181025  RH  073%=      5-min Rain = 0
KOD1 171416Z 29007KT 02/M03 A3016 RMK A01 T00181025  RH  073%=      5-min Rain = 0
KOD1 171417Z 29006KT 02/M03 A3016 RMK A01 T00191025  RH  073%=      5-min Rain = 0
KOD1 171418Z 29006KT 02/M03 A3016 RMK A01 T00181025  RH  073%=      5-min Rain = 0
KOD1 171419Z 29006KT 02/M03 A3016 RMK A01 T00181025  RH  073%=      5-min Rain = 0
KOD1 171420Z 29006KT 02/M03 A3016 RMK A01 T00171025  RH  074%=      5-min Rain = 0
KOD1 171421Z 29006KT 02/M02 A3016 RMK A01 T00171024  RH  074%=      5-min Rain = 0
KOD1 171422Z 29006KT 02/M02 A3016 RMK A01 T00181024  RH  074%=      5-min Rain = 0
KOD1 171423Z 29006KT 02/M02 A3016 RMK A01 T00181024  RH  073%=      5-min Rain = 0
KOD1 171424Z 29005KT 02/M02 A3016 RMK A01 T00191024  RH  073%=      5-min Rain = 0
KOD1 171425Z 29006KT 02/M02 A3016 RMK A01 T00191024  RH  073%=      5-min Rain = 0
KOD1 171426Z 29006KT 02/M02 A3016 RMK A01 T00191023  RH  073%=      5-min Rain = 0
KOD1 171427Z 29006KT 02/M02 A3016 RMK A01 T00191023  RH  074%=      5-min Rain = 0
KOD1 171428Z 29006KT 02/M02 A3016 RMK A01 T00191023  RH  074%=      5-min Rain = 0
KOD1 171429Z 29005KT 02/M02 A3016 RMK A01 T00191023  RH  074%=      5-min Rain = 0
KOD1 171430Z 29005KT 02/M02 A3016 RMK A01 T00191023  RH  074%=      5-min Rain = 0
KOD1 171431Z 28005KT 02/M02 A3016 RMK A01 T00191023  RH  074%=      5-min Rain = 0
KOD1 171432Z 28005KT 02/M02 A3016 RMK A01 T00201022  RH  074%=      5-min Rain = 0
KOD1 171433Z 28005KT 02/M02 A3016 RMK A01 T00201022  RH  074%=      5-min Rain = 0
KOD1 171434Z 28005KT 02/M02 A3016 RMK A01 T00201022  RH  074%=      5-min Rain = 0
KOD1 171435Z 28005KT 02/M02 A3016 RMK A01 T00201022  RH  074%=      5-min Rain = 0
KOD1 171436Z 28005KT 02/M02 A3016 RMK A01 T00201021  RH  074%=      5-min Rain = 0
KOD1 171437Z 28005KT 02/M02 A3016 RMK A01 T00211021  RH  074%=      5-min Rain = 0
KOD1 171438Z 28005KT 02/M02 A3016 RMK A01 T00211020  RH  074%=      5-min Rain = 0
KOD1 171439Z 29005KT 02/M02 A3016 RMK A01 T00221020  RH  074%=      5-min Rain = 0
KOD1 171440Z 29006KT 02/M02 A3016 RMK A01 T00231019  RH  074%=      5-min Rain = 0
KOD1 171441Z 29005KT 02/M02 A3016 RMK A01 T00231019  RH  073%=      5-min Rain = 0
KOD1 171442Z 29005KT 03/M02 A3016 RMK A01 T00251019  RH  073%=      5-min Rain = 0
KOD1 171443Z 29005KT 03/M02 A3016 RMK A01 T00251019  RH  073%=      5-min Rain = 0
KOD1 171444Z 29005KT 03/M02 A3016 RMK A01 T00271019  RH  072%=      5-min Rain = 0
KOD1 171445Z 29006KT 03/M02 A3016 RMK A01 T00271019  RH  072%=      5-min Rain = 0
KOD1 171446Z 29006KT 03/M02 A3016 RMK A01 T00281018  RH  071%=      5-min Rain = 0
KOD1 171447Z 29006KT 03/M02 A3016 RMK A01 T00291019  RH  071%=      5-min Rain = 0
KOD1 171448Z 29006KT 03/M02 A3016 RMK A01 T00301018  RH  071%=      5-min Rain = 0
KOD1 171449Z 29006KT 03/M02 A3016 RMK A01 T00311018  RH  070%=      5-min Rain = 0
KOD1 171450Z 28005KT 03/M02 A3016 RMK A01 T00311018  RH  070%=      5-min Rain = 0
KOD1 171451Z 29006KT 03/M02 A3016 RMK A01 T00321018  RH  070%=      5-min Rain = 0
KOD1 171452Z 29006KT 03/M02 A3016 RMK A01 T00331018  RH  069%=      5-min Rain = 0
KOD1 171453Z 29005KT 03/M02 A3016 RMK A01 T00341017  RH  069%=      5-min Rain = 0
KOD1 171454Z 29005KT 03/M02 A3016 RMK A01 T00341018  RH  069%=      5-min Rain = 0
KOD1 171455Z 29005KT 04/M02 A3016 RMK A01 T00351017  RH  069%=      5-min Rain = 0
KOD1 171456Z 29005KT 04/M02 A3017 RMK A01 T00361017  RH  068%=      5-min Rain = 0
KOD1 171457Z 29005KT 04/M02 A3017 RMK A01 T00361018  RH  068%=      5-min Rain = 0
KOD1 171458Z 29005KT 04/M02 A3017 RMK A01 T00371017  RH  068%=      5-min Rain = 0
KOD1 171459Z 29005KT 04/M02 A3017 RMK A01 T00371017  RH  067%=      5-min Rain = 0
KOD1 171500Z 29006KT 04/M02 A3017 RMK A01 T00381018  RH  067%=      5-min Rain = 0
KOD1 171501Z 29006KT 04/M02 A3017 RMK A01 T00381018  RH  067%=      5-min Rain = 0
KOD1 171502Z 29006KT 04/M02 A3017 RMK A01 T00391018  RH  066%=      5-min Rain = 0
KOD1 171503Z 30006KT 04/M02 A3017 RMK A01 T00391019  RH  066%=      5-min Rain = 0
KOD1 171504Z 29007KT 04/M02 A3017 RMK A01 T00401019  RH  066%=      5-min Rain = 0
KOD1 171505Z 29006KT 04/M02 A3017 RMK A01 T00401019  RH  065%=      5-min Rain = 0
KOD1 171506Z 29006KT 04/M02 A3017 RMK A01 T00401019  RH  065%=      5-min Rain = 0
KOD1 171507Z 29006KT 04/M02 A3018 RMK A01 T00411018  RH  065%=      5-min Rain = 0
KOD1 171508Z 29007KT 04/M02 A3018 RMK A01 T00411018  RH  065%=      5-min Rain = 0
KOD1 171509Z 29007KT 04/M02 A3018 RMK A01 T00421019  RH  065%=      5-min Rain = 0
KOD1 171510Z 29007KT 04/M02 A3018 RMK A01 T00411020  RH  064%=      5-min Rain = 0
KOD1 171511Z 29007KT 04/M02 A3018 RMK A01 T00421019  RH  064%=      5-min Rain = 0
KOD1 171512Z 29007KT 04/M02 A3018 RMK A01 T00421019  RH  064%=      5-min Rain = 0
KOD1 171513Z 29006KT 04/M02 A3018 RMK A01 T00431018  RH  064%=      5-min Rain = 0
KOD1 171514Z 28007KT 04/M02 A3018 RMK A01 T00441018  RH  064%=      5-min Rain = 0
KOD1 171515Z 29006KT 04/M02 A3018 RMK A01 T00441018  RH  064%=      5-min Rain = 0
KOD1 171516Z 29006KT 05/M02 A3018 RMK A01 T00451019  RH  064%=      5-min Rain = 0
KOD1 171517Z 28007KT 05/M02 A3018 RMK A01 T00451019  RH  063%=      5-min Rain = 0
KOD1 171518Z 29007KT 05/M02 A3018 RMK A01 T00451020  RH  062%=      5-min Rain = 0
KOD1 171519Z 28006KT 05/M02 A3018 RMK A01 T00461020  RH  062%=      5-min Rain = 0
KOD1 171520Z 28007KT 05/M02 A3018 RMK A01 T00461020  RH  062%=      5-min Rain = 0
KOD1 171521Z 28007KT 05/M02 A3018 RMK A01 T00471020  RH  062%=      5-min Rain = 0
KOD1 171522Z 29007KT 05/M02 A3018 RMK A01 T00471020  RH  062%=      5-min Rain = 0
KOD1 171523Z 28007KT 05/M02 A3018 RMK A01 T00481020  RH  062%=      5-min Rain = 0
KOD1 171524Z 28007KT 05/M02 A3018 RMK A01 T00481020  RH  061%=      5-min Rain = 0
KOD1 171525Z 28007KT 05/M02 A3018 RMK A01 T00491019  RH  061%=      5-min Rain = 0
KOD1 171526Z 28008KT 05/M02 A3018 RMK A01 T00491019  RH  061%=      5-min Rain = 0
KOD1 171527Z 28007KT 05/M02 A3018 RMK A01 T00501019  RH  061%=      5-min Rain = 0
KOD1 171528Z 28008KT 05/M02 A3018 RMK A01 T00501019  RH  061%=      5-min Rain = 0
KOD1 171529Z 28008KT 05/M02 A3018 RMK A01 T00501020  RH  061%=      5-min Rain = 0
KOD1 171530Z 28008KT 05/M02 A3018 RMK A01 T00501020  RH  061%=      5-min Rain = 0
KOD1 171531Z 28009KT 05/M02 A3018 RMK A01 T00511021  RH  060%=      5-min Rain = 0
KOD1 171532Z 28008KT 05/M02 A3018 RMK A01 T00511020  RH  060%=      5-min Rain = 0
KOD1 171533Z 28009KT 05/M02 A3018 RMK A01 T00521020  RH  060%=      5-min Rain = 0
KOD1 171534Z 28008KT 05/M02 A3018 RMK A01 T00521021  RH  059%=      5-min Rain = 0
KOD1 171535Z 28008KT 05/M02 A3018 RMK A01 T00531019  RH  060%=      5-min Rain = 0
KOD1 171536Z 28007KT 05/M02 A3018 RMK A01 T00541018  RH  060%=      5-min Rain = 0
KOD1 171537Z 28008KT 06/M02 A3018 RMK A01 T00551017  RH  060%=      5-min Rain = 0
KOD1 171538Z 28008KT 06/M02 A3018 RMK A01 T00561018  RH  059%=      5-min Rain = 0
KOD1 171539Z 28008KT 06/M02 A3018 RMK A01 T00561018  RH  059%=      5-min Rain = 0
KOD1 171540Z 28008KT 06/M02 A3018 RMK A01 T00561019  RH  058%=      5-min Rain = 0
KOD1 171541Z 28008KT 06/M02 A3018 RMK A01 T00571019  RH  058%=      5-min Rain = 0
KOD1 171542Z 28009KT 06/M02 A3018 RMK A01 T00571020  RH  058%=      5-min Rain = 0
KOD1 171543Z 28009KT 06/M02 A3018 RMK A01 T00571019  RH  058%=      5-min Rain = 0
KOD1 171544Z 28009KT 06/M02 A3018 RMK A01 T00581019  RH  058%=      5-min Rain = 0
KOD1 171545Z 28009KT 06/M02 A3018 RMK A01 T00591019  RH  057%=      5-min Rain = 0
KOD1 171546Z 28009KT 06/M02 A3018 RMK A01 T00591019  RH  057%=      5-min Rain = 0
KOD1 171547Z 28009KT 06/M02 A3018 RMK A01 T00601019  RH  057%=      5-min Rain = 0
KOD1 171548Z 28009KT 06/M02 A3018 RMK A01 T00601020  RH  056%=      5-min Rain = 0
KOD1 171549Z 28008KT 06/M02 A3018 RMK A01 T00611019  RH  057%=      5-min Rain = 0
KOD1 171550Z 28009KT 06/M02 A3018 RMK A01 T00611020  RH  056%=      5-min Rain = 0
KOD1 171551Z 28009KT 06/M02 A3018 RMK A01 T00611020  RH  056%=      5-min Rain = 0
KOD1 171552Z 28008KT 06/M02 A3018 RMK A01 T00611020  RH  056%=      5-min Rain = 0
KOD1 171553Z 29007KT 06/M02 A3018 RMK A01 T00621019  RH  056%=      5-min Rain = 0
KOD1 171554Z 29007KT 06/M02 A3018 RMK A01 T00631018  RH  056%=      5-min Rain = 0
KOD1 171555Z 29009KT 06/M02 A3018 RMK A01 T00631020  RH  055%=      5-min Rain = 0
KOD1 171556Z 29008KT 06/M02 A3018 RMK A01 T00641020  RH  055%=      5-min Rain = 0
KOD1 171557Z 29008KT 06/M02 A3019 RMK A01 T00641021  RH  055%=      5-min Rain = 0
KOD1 171558Z 29008KT 06/M02 A3019 RMK A01 T00641021  RH  054%=      5-min Rain = 0
KOD1 171559Z 29007KT 07/M02 A3019 RMK A01 T00651020  RH  055%=      5-min Rain = 0
KOD1 171600Z 29008KT 07/M02 A3019 RMK A01 T00651020  RH  054%=      5-min Rain = 0
KOD1 171601Z 29008KT 07/M02 A3019 RMK A01 T00651021  RH  054%=      5-min Rain = 0
KOD1 171602Z 29009KT 07/M02 A3019 RMK A01 T00661021  RH  054%=      5-min Rain = 0
KOD1 171603Z 29009KT 07/M02 A3019 RMK A01 T00661022  RH  053%=      5-min Rain = 0
KOD1 171604Z 29008KT 07/M02 A3019 RMK A01 T00661022  RH  053%=      5-min Rain = 0
KOD1 171605Z 29008KT 07/M02 A3019 RMK A01 T00671020  RH  054%=      5-min Rain = 0
KOD1 171606Z 29008KT 07/M02 A3019 RMK A01 T00671020  RH  054%=      5-min Rain = 0
KOD1 171607Z 29008KT 07/M02 A3019 RMK A01 T00671021  RH  053%=      5-min Rain = 0
KOD1 171608Z 29008KT 07/M02 A3019 RMK A01 T00681019  RH  054%=      5-min Rain = 0
KOD1 171609Z 29009KT 07/M02 A3019 RMK A01 T00691020  RH  053%=      5-min Rain = 0
KOD1 171610Z 30008KT 07/M02 A3019 RMK A01 T00691022  RH  052%=      5-min Rain = 0
KOD1 171611Z 29007KT 07/M02 A3019 RMK A01 T00711019  RH  053%=      5-min Rain = 0
KOD1 171612Z 29008KT 07/M02 A3019 RMK A01 T00731017  RH  053%=      5-min Rain = 0
KOD1 171613Z 29008KT 07/M02 A3019 RMK A01 T00741021  RH  051%=      5-min Rain = 0
KOD1 171614Z 29008KT 07/M02 A302 RMK A01 T00741021  RH  051%=      5-min Rain = 0
KOD1 171615Z 29009KT 08/M02 A302 RMK A01 T00751021  RH  051%=      5-min Rain = 0
KOD1 171616Z 30007KT 08/M02 A302 RMK A01 T00751021  RH  051%=      5-min Rain = 0
KOD1 171617Z 30007KT 08/M02 A302 RMK A01 T00771021  RH  050%=      5-min Rain = 0
KOD1 171618Z 29008KT 08/M02 A302 RMK A01 T00771023  RH  049%=      5-min Rain = 0
KOD1 171619Z 30008KT 08/M02 A302 RMK A01 T00771024  RH  049%=      5-min Rain = 0
KOD1 171620Z 29008KT 08/M02 A302 RMK A01 T00771023  RH  049%=      5-min Rain = 0
KOD1 171621Z 30008KT 08/M03 A302 RMK A01 T00771025  RH  048%=      5-min Rain = 0
KOD1 171622Z 30008KT 08/M02 A302 RMK A01 T00781024  RH  048%=      5-min Rain = 0
KOD1 171623Z 29009KT 08/M02 A302 RMK A01 T00791022  RH  049%=      5-min Rain = 0
KOD1 171624Z 31009KT 08/M02 A302 RMK A01 T00811023  RH  048%=      5-min Rain = 0
KOD1 171625Z 30009KT 08/M03 A302 RMK A01 T00821025  RH  047%=      5-min Rain = 0
KOD1 171626Z 30008KT 09/M02 A302 RMK A01 T00851021  RH  047%=      5-min Rain = 0
KOD1 171627Z 29009KT 09/M02 A302 RMK A01 T00871022  RH  046%=      5-min Rain = 0
KOD1 171628Z 30008KT 09/M02 A302 RMK A01 T00881021  RH  046%=      5-min Rain = 0
KOD1 171629Z 29010KT 09/M02 A302 RMK A01 T00881023  RH  046%=      5-min Rain = 0
KOD1 171630Z 30010KT 09/M03 A302 RMK A01 T00861027  RH  045%=      5-min Rain = 0
KOD1 171631Z 29010KT 09/M03 A302 RMK A01 T00851026  RH  045%=      5-min Rain = 0
KOD1 171632Z 30010KT 08/M03 A302 RMK A01 T00841026  RH  046%=      5-min Rain = 0
KOD1 171633Z 30008KT 08/M03 A302 RMK A01 T00831025  RH  047%=      5-min Rain = 0
KOD1 171634Z 29009KT 08/M02 A302 RMK A01 T00831023  RH  047%=      5-min Rain = 0
KOD1 171635Z 29009KT 08/M03 A302 RMK A01 T00831025  RH  046%=      5-min Rain = 0
KOD1 171636Z 30009KT 08/M02 A302 RMK A01 T00831024  RH  047%=      5-min Rain = 0
KOD1 171637Z 30008KT 08/M02 A302 RMK A01 T00821023  RH  047%=      5-min Rain = 0
KOD1 171638Z 30007KT 08/M02 A302 RMK A01 T00841022  RH  047%=      5-min Rain = 0
KOD1 171639Z 30008KT 09/M02 A302 RMK A01 T00861023  RH  046%=      5-min Rain = 0
KOD1 171640Z 31009KT 09/M03 A302 RMK A01 T00861025  RH  046%=      5-min Rain = 0
KOD1 171641Z 31007KT 09/M02 A302 RMK A01 T00861024  RH  046%=      5-min Rain = 0
KOD1 171642Z 31007KT 09/M02 A302 RMK A01 T00871023  RH  046%=      5-min Rain = 0
KOD1 171643Z 30009KT 09/M02 A302 RMK A01 T00891022  RH  046%=      5-min Rain = 0
KOD1 171644Z 31011KT 09/M03 A302 RMK A01 T00891027  RH  044%=      5-min Rain = 0
KOD1 171645Z 31012KT 09/M03 A302 RMK A01 T00891030  RH  043%=      5-min Rain = 0
KOD1 171646Z 30009KT 09/M03 A302 RMK A01 T00891031  RH  043%=      5-min Rain = 0
KOD1 171647Z 30011KT 09/M03 A302 RMK A01 T00901029  RH  043%=      5-min Rain = 0
KOD1 171648Z 30010KT 09/M03 A302 RMK A01 T00901031  RH  042%=      5-min Rain = 0
KOD1 171649Z 31009KT 09/M03 A302 RMK A01 T00901033  RH  042%=      5-min Rain = 0
KOD1 171650Z 31009KT 09/M03 A302 RMK A01 T00901029  RH  043%=      5-min Rain = 0
KOD1 171651Z 32009KT 09/M03 A302 RMK A01 T00931025  RH  043%=      5-min Rain = 0
KOD1 171652Z 32010KT 09/M03 A302 RMK A01 T00931029  RH  042%=      5-min Rain = 0
KOD1 171653Z 31009KT 09/M03 A302 RMK A01 T00931033  RH  041%=      5-min Rain = 0
KOD1 171654Z 31011KT 09/M03 A302 RMK A01 T00931032  RH  041%=      5-min Rain = 0
KOD1 171655Z 31013KT 09/M03 A302 RMK A01 T00921034  RH  041%=      5-min Rain = 0
KOD1 171656Z 31010G15KT 09/M03 A302 RMK A01 T00911034  RH  041%=      5-min Rain = 0
KOD1 171657Z 30012KT 09/M03 A302 RMK A01 T00921033  RH  041%=      5-min Rain = 0
KOD1 171658Z 31012KT 09/M04 A302 RMK A01 T00911036  RH  040%=      5-min Rain = 0
KOD1 171659Z 32012KT 09/M03 A302 RMK A01 T00921033  RH  041%=      5-min Rain = 0
KOD1 171700Z 31012KT 09/M03 A302 RMK A01 T00921033  RH  041%=      5-min Rain = 0
KOD1 171701Z 33012KT 09/M04 A302 RMK A01 T00911035  RH  041%=      5-min Rain = 0
KOD1 171702Z 33012KT 09/M04 A302 RMK A01 T00911035  RH  041%=      5-min Rain = 0
KOD1 171703Z 32010KT 09/M03 A302 RMK A01 T00911034  RH  041%=      5-min Rain = 0
KOD1 171704Z 31012KT 09/M03 A302 RMK A01 T00931033  RH  041%=      5-min Rain = 0
KOD1 171705Z 31013KT 09/M04 A302 RMK A01 T00921035  RH  041%=      5-min Rain = 0
KOD1 171706Z 32011KT 09/M04 A302 RMK A01 T00911037  RH  040%=      5-min Rain = 0
KOD1 171707Z 31010KT 09/M03 A302 RMK A01 T00911033  RH  041%=      5-min Rain = 0
KOD1 171708Z 31009KT 09/M03 A3019 RMK A01 T00911034  RH  041%=      5-min Rain = 0
KOD1 171709Z 30009KT 09/M03 A3019 RMK A01 T00921032  RH  042%=      5-min Rain = 0
KOD1 171710Z 32009KT 09/M03 A3019 RMK A01 T00931031  RH  042%=      5-min Rain = 0
KOD1 171711Z 31011KT 09/M03 A302 RMK A01 T00941034  RH  041%=      5-min Rain = 0
KOD1 171712Z 31011KT 09/M04 A302 RMK A01 T00931036  RH  040%=      5-min Rain = 0
KOD1 171713Z 33009KT 09/M03 A302 RMK A01 T00941034  RH  040%=      5-min Rain = 0
KOD1 171714Z 33010KT 10/M03 A302 RMK A01 T00951034  RH  040%=      5-min Rain = 0
KOD1 171715Z 32009KT 10/M03 A302 RMK A01 T00961032  RH  040%=      5-min Rain = 0
KOD1 171716Z 32011KT 10/M03 A3019 RMK A01 T00961033  RH  040%=      5-min Rain = 0
KOD1 171717Z 32011KT 10/M03 A3019 RMK A01 T00951034  RH  040%=      5-min Rain = 0
KOD1 171718Z 32011KT 09/M03 A3019 RMK A01 T00941034  RH  040%=      5-min Rain = 0
KOD1 171719Z 32010KT 10/M03 A3019 RMK A01 T00951031  RH  041%=      5-min Rain = 0
KOD1 171720Z 32010KT 10/M03 A3019 RMK A01 T00961030  RH  041%=      5-min Rain = 0
KOD1 171721Z 32012KT 10/M03 A3019 RMK A01 T00961031  RH  041%=      5-min Rain = 0
KOD1 171722Z 33014KT 10/M04 A3019 RMK A01 T00951035  RH  040%=      5-min Rain = 0
KOD1 171723Z 31013KT 10/M03 A3019 RMK A01 T00951033  RH  041%=      5-min Rain = 0
KOD1 171724Z 31013KT 10/M03 A3019 RMK A01 T00961033  RH  040%=      5-min Rain = 0
KOD1 171725Z 32013KT 10/M03 A3019 RMK A01 T00961034  RH  040%=      5-min Rain = 0
KOD1 171726Z 32011KT 10/M03 A3019 RMK A01 T00951034  RH  040%=      5-min Rain = 0
KOD1 171727Z 33012KT 10/M03 A3019 RMK A01 T00961033  RH  040%=      5-min Rain = 0
KOD1 171728Z 33013KT 10/M03 A3019 RMK A01 T00951034  RH  040%=      5-min Rain = 0
KOD1 171729Z 32010KT 10/M03 A3019 RMK A01 T00961032  RH  041%=      5-min Rain = 0
KOD1 171730Z 33010KT 10/M03 A3019 RMK A01 T00971030  RH  041%=      5-min Rain = 0
KOD1 171731Z 33012KT 10/M03 A3019 RMK A01 T00981031  RH  040%=      5-min Rain = 0
KOD1 171732Z 33010KT 10/M03 A3019 RMK A01 T00981032  RH  040%=      5-min Rain = 0
KOD1 171733Z 33012KT 10/M03 A3019 RMK A01 T00971034  RH  039%=      5-min Rain = 0
KOD1 171734Z 32010KT 10/M03 A3019 RMK A01 T00951034  RH  040%=      5-min Rain = 0
KOD1 171735Z 33010KT 10/M03 A3019 RMK A01 T00961030  RH  041%=      5-min Rain = 0
KOD1 171736Z 31010KT 10/M03 A3019 RMK A01 T00971029  RH  041%=      5-min Rain = 0
KOD1 171737Z 32011KT 10/M03 A3019 RMK A01 T00981028  RH  041%=      5-min Rain = 0
KOD1 171738Z 31012KT 10/M03 A3019 RMK A01 T00981031  RH  040%=      5-min Rain = 0
KOD1 171739Z 32014KT 10/M03 A3019 RMK A01 T00971032  RH  040%=      5-min Rain = 0
KOD1 171740Z 32013KT 10/M03 A3019 RMK A01 T00961034  RH  040%=      5-min Rain = 0
KOD1 171741Z 33011KT 10/M03 A3019 RMK A01 T00961032  RH  040%=      5-min Rain = 0
KOD1 171742Z 33013KT 10/M03 A3019 RMK A01 T00961033  RH  040%=      5-min Rain = 0
KOD1 171743Z 33011KT 10/M03 A3019 RMK A01 T00951033  RH  040%=      5-min Rain = 0
KOD1 171744Z 31009KT 10/M03 A3019 RMK A01 T00981030  RH  041%=      5-min Rain = 0
KOD1 171745Z 31011KT 10/M03 A3019 RMK A01 T00991030  RH  040%=      5-min Rain = 0
KOD1 171746Z 31011KT 10/M03 A3019 RMK A01 T00971033  RH  040%=      5-min Rain = 0
KOD1 171747Z 31010KT 10/M03 A3018 RMK A01 T00981030  RH  041%=      5-min Rain = 0
KOD1 171748Z 31012KT 10/M03 A3018 RMK A01 T00981030  RH  040%=      5-min Rain = 0
KOD1 171749Z 31009KT 10/M03 A3018 RMK A01 T00981031  RH  040%=      5-min Rain = 0
KOD1 171750Z 33009KT 10/M03 A3018 RMK A01 T00981031  RH  040%=      5-min Rain = 0
KOD1 171751Z 32013KT 10/M03 A3018 RMK A01 T00991030  RH  040%=      5-min Rain = 0
KOD1 171752Z 32012KT 10/M03 A3018 RMK A01 T01001032  RH  039%=      5-min Rain = 0
KOD1 171753Z 32010KT 10/M04 A3018 RMK A01 T01001035  RH  039%=      5-min Rain = 0
KOD1 171754Z 33009KT 10/M03 A3018 RMK A01 T00991034  RH  039%=      5-min Rain = 0
KOD1 171755Z 32011KT 10/M03 A3018 RMK A01 T01001031  RH  040%=      5-min Rain = 0
KOD1 171756Z 31011KT 10/M03 A3018 RMK A01 T00991033  RH  039%=      5-min Rain = 0
KOD1 171757Z 31010KT 10/M03 A3018 RMK A01 T01021029  RH  040%=      5-min Rain = 0
KOD1 171758Z 31010KT 11/M03 A3018 RMK A01 T01061027  RH  039%=      5-min Rain = 0
KOD1 171759Z 32010KT 11/M03 A3018 RMK A01 T01071032  RH  038%=      5-min Rain = 0
KOD1 171800Z 33008KT 11/M03 A3018 RMK A01 T01051034  RH  037%=      5-min Rain = 0
KOD1 171801Z 32009KT 11/M03 A3018 RMK A01 T01051034  RH  037%=      5-min Rain = 0
KOD1 171802Z 32008KT 10/M03 A3018 RMK A01 T01041034  RH  038%=      5-min Rain = 0
KOD1 171803Z 33013KT 10/M04 A3018 RMK A01 T01041035  RH  038%=      5-min Rain = 0
KOD1 171804Z 33010KT 10/M04 A3018 RMK A01 T01021038  RH  037%=      5-min Rain = 0
KOD1 171805Z 34009KT 10/M04 A3017 RMK A01 T01031037  RH  037%=      5-min Rain = 0
KOD1 171806Z 34009KT 11/M03 A3017 RMK A01 T01071032  RH  038%=      5-min Rain = 0
KOD1 171807Z 34011KT 11/M04 A3017 RMK A01 T01081035  RH  036%=      5-min Rain = 0
KOD1 171808Z 35011KT 11/M04 A3017 RMK A01 T01061037  RH  036%=      5-min Rain = 0
KOD1 171809Z 35010KT 11/M04 A3017 RMK A01 T01051038  RH  036%=      5-min Rain = 0
KOD1 171810Z 34011KT 11/M04 A3017 RMK A01 T01051037  RH  037%=      5-min Rain = 0
KOD1 171811Z 34010KT 10/M04 A3017 RMK A01 T01031036  RH  037%=      5-min Rain = 0
KOD1 171812Z 33010KT 10/M04 A3017 RMK A01 T01021036  RH  038%=      5-min Rain = 0
KOD1 171813Z 33011KT 10/M04 A3017 RMK A01 T01021035  RH  038%=      5-min Rain = 0
KOD1 171814Z 33011KT 10/M04 A3017 RMK A01 T01021035  RH  038%=      5-min Rain = 0
KOD1 171815Z 33012KT 10/M04 A3017 RMK A01 T01041036  RH  037%=      5-min Rain = 0
KOD1 171816Z 33013KT 10/M04 A3017 RMK A01 T01041038  RH  037%=      5-min Rain = 0
KOD1 171817Z 33011KT 10/M04 A3017 RMK A01 T01021040  RH  036%=      5-min Rain = 0
KOD1 171818Z 31009KT 10/M04 A3017 RMK A01 T01031038  RH  037%=      5-min Rain = 0
KOD1 171819Z 31010KT 10/M04 A3017 RMK A01 T01031038  RH  037%=      5-min Rain = 0
KOD1 171820Z 32011KT 10/M04 A3016 RMK A01 T01041038  RH  037%=      5-min Rain = 0
KOD1 171821Z 31010KT 11/M04 A3016 RMK A01 T01051035  RH  037%=      5-min Rain = 0
KOD1 171822Z 32008KT 11/M03 A3016 RMK A01 T01101032  RH  037%=      5-min Rain = 0
KOD1 171823Z 31009KT 11/M03 A3016 RMK A01 T01131033  RH  036%=      5-min Rain = 0
KOD1 171824Z 32009KT 11/M04 A3016 RMK A01 T01131037  RH  035%=      5-min Rain = 0
KOD1 171825Z 34009KT 12/M03 A3016 RMK A01 T01151034  RH  035%=      5-min Rain = 0
KOD1 171826Z 35007KT 12/M04 A3016 RMK A01 T01151035  RH  035%=      5-min Rain = 0
KOD1 171827Z 35008KT 12/M04 A3016 RMK A01 T01151035  RH  035%=      5-min Rain = 0
KOD1 171828Z 35010KT 12/M03 A3016 RMK A01 T01171034  RH  035%=      5-min Rain = 0
KOD1 171829Z 35008KT 11/M04 A3016 RMK A01 T01131040  RH  034%=      5-min Rain = 0
KOD1 171830Z 35008KT 11/M04 A3016 RMK A01 T01101038  RH  035%=      5-min Rain = 0
KOD1 171831Z 36008KT 11/M04 A3015 RMK A01 T01111037  RH  035%=      5-min Rain = 0
KOD1 171832Z 33009KT 11/M04 A3015 RMK A01 T01111037  RH  035%=      5-min Rain = 0
KOD1 171833Z 32011KT 11/M04 A3015 RMK A01 T01141038  RH  034%=      5-min Rain = 0
KOD1 171834Z 33011KT 11/M04 A3015 RMK A01 T01131039  RH  034%=      5-min Rain = 0
KOD1 171835Z 33008KT 11/M04 A3015 RMK A01 T01121041  RH  034%=      5-min Rain = 0
KOD1 171836Z 33008KT 11/M04 A3015 RMK A01 T01111040  RH  034%=      5-min Rain = 0
KOD1 171837Z 34008KT 11/M04 A3015 RMK A01 T01111042  RH  034%=      5-min Rain = 0
KOD1 171838Z 34012KT 11/M04 A3015 RMK A01 T01111042  RH  034%=      5-min Rain = 0
KOD1 171839Z 34012KT 11/M05 A3015 RMK A01 T01101046  RH  033%=      5-min Rain = 0
KOD1 171840Z 33011KT 11/M04 A3015 RMK A01 T01111044  RH  033%=      5-min Rain = 0
KOD1 171841Z 32010KT 11/M05 A3015 RMK A01 T01111047  RH  033%=      5-min Rain = 0
KOD1 171842Z 32008KT 11/M05 A3015 RMK A01 T01101045  RH  033%=      5-min Rain = 0
KOD1 171843Z 34007KT 11/M04 A3015 RMK A01 T01111042  RH  034%=      5-min Rain = 0
KOD1 171844Z 34007KT 11/M04 A3015 RMK A01 T01121043  RH  034%=      5-min Rain = 0
KOD1 171845Z 33005KT 11/M04 A3015 RMK A01 T01131040  RH  034%=      5-min Rain = 0
KOD1 171846Z 32006KT 12/M04 A3015 RMK A01 T01161040  RH  033%=      5-min Rain = 0
KOD1 171847Z 31008KT 12/M04 A3015 RMK A01 T01171042  RH  033%=      5-min Rain = 0
KOD1 171848Z 32007KT 12/M04 A3015 RMK A01 T01161042  RH  033%=      5-min Rain = 0
KOD1 171849Z 34008KT 12/M04 A3015 RMK A01 T01181041  RH  033%=      5-min Rain = 0
KOD1 171850Z 31009KT 12/M04 A3015 RMK A01 T01201038  RH  033%=      5-min Rain = 0
KOD1 171851Z 31010KT 12/M04 A3015 RMK A01 T01201040  RH  032%=      5-min Rain = 0
KOD1 171852Z 33012KT 12/M04 A3015 RMK A01 T01201041  RH  032%=      5-min Rain = 0
KOD1 171853Z 33009KT 12/M04 A3015 RMK A01 T01201044  RH  031%=      5-min Rain = 0
KOD1 171854Z 33009KT 12/M05 A3015 RMK A01 T01191048  RH  031%=      5-min Rain = 0
KOD1 171855Z 35010KT 12/M06 A3015 RMK A01 T01191057  RH  029%=      5-min Rain = 0
KOD1 171856Z 34012KT 12/M05 A3014 RMK A01 T01221053  RH  029%=      5-min Rain = 0
KOD1 171857Z 34012KT 12/M05 A3015 RMK A01 T01221051  RH  029%=      5-min Rain = 0
KOD1 171858Z 34008KT 12/M05 A3014 RMK A01 T01191053  RH  030%=      5-min Rain = 0
KOD1 171859Z 35010G15KT 12/M05 A3014 RMK A01 T01191051  RH  030%=      5-min Rain = 0
KOD1 171900Z 33012KT 12/M05 A3014 RMK A01 T01201048  RH  031%=      5-min Rain = 0
KOD1 171901Z 33009KT 12/M05 A3014 RMK A01 T01201049  RH  030%=      5-min Rain = 0
KOD1 171902Z 32009KT 12/M05 A3014 RMK A01 T01181053  RH  030%=      5-min Rain = 0
KOD1 171903Z 33008G13KT 12/M05 A3014 RMK A01 T01161054  RH  030%=      5-min Rain = 0
KOD1 171904Z 34008G13KT 12/M06 A3014 RMK A01 T01151056  RH  030%=      5-min Rain = 0
KOD1 171905Z 35008KT 12/M06 A3014 RMK A01 T01161055  RH  030%=      5-min Rain = 0
KOD1 171906Z 34009KT 12/M06 A3013 RMK A01 T01171057  RH  029%=      5-min Rain = 0
KOD1 171907Z 33010KT 12/M05 A3013 RMK A01 T01171053  RH  030%=      5-min Rain = 0
KOD1 171908Z 32010KT 12/M05 A3013 RMK A01 T01181054  RH  030%=      5-min Rain = 0
KOD1 171909Z 33006KT 12/M06 A3013 RMK A01 T01171055  RH  030%=      5-min Rain = 0
KOD1 171910Z 32008KT 12/M05 A3013 RMK A01 T01181053  RH  030%=      5-min Rain = 0
KOD1 171911Z 32010KT 12/M05 A3013 RMK A01 T01201051  RH  030%=      5-min Rain = 0
KOD1 171912Z 32009KT 12/M05 A3013 RMK A01 T01201052  RH  030%=      5-min Rain = 0
KOD1 171913Z 31010KT 12/M05 A3013 RMK A01 T01221054  RH  029%=      5-min Rain = 0
KOD1 171914Z 31010KT 12/M06 A3013 RMK A01 T01221055  RH  029%=      5-min Rain = 0
KOD1 171915Z 32006KT 12/M06 A3013 RMK A01 T01201057  RH  029%=      5-min Rain = 0
KOD1 171916Z 31006KT 12/M06 A3013 RMK A01 T01181057  RH  029%=      5-min Rain = 0
KOD1 171917Z 31007KT 12/M06 A3013 RMK A01 T01181056  RH  029%=      5-min Rain = 0
KOD1 171918Z 32010KT 12/M05 A3013 RMK A01 T01221050  RH  030%=      5-min Rain = 0
KOD1 171919Z 31008KT 12/M05 A3013 RMK A01 T01241050  RH  029%=      5-min Rain = 0
KOD1 171920Z 32009KT 12/M05 A3013 RMK A01 T01241052  RH  029%=      5-min Rain = 0
KOD1 171921Z 31012KT 12/M06 A3012 RMK A01 T01231056  RH  028%=      5-min Rain = 0
KOD1 171922Z 31010KT 12/M05 A3013 RMK A01 T01211053  RH  029%=      5-min Rain = 0
KOD1 171923Z 33009KT 12/M06 A3013 RMK A01 T01231055  RH  028%=      5-min Rain = 0
KOD1 171924Z 33007KT 12/M07 A3013 RMK A01 T01211066  RH  027%=      5-min Rain = 0
KOD1 171925Z 33006KT 12/M07 A3013 RMK A01 T01191065  RH  027%=      5-min Rain = 0
KOD1 171926Z 33006KT 12/M06 A3013 RMK A01 T01201063  RH  027%=      5-min Rain = 0
KOD1 171927Z 34009KT 12/M06 A3013 RMK A01 T01211060  RH  028%=      5-min Rain = 0
KOD1 171928Z 35006KT 12/M06 A3013 RMK A01 T01191056  RH  029%=      5-min Rain = 0
KOD1 171929Z 35006KT 12/M05 A3013 RMK A01 T01201054  RH  029%=      5-min Rain = 0
KOD1 171930Z 34009KT 12/M06 A3013 RMK A01 T01211059  RH  028%=      5-min Rain = 0
KOD1 171931Z 33009KT 12/M06 A3013 RMK A01 T01231057  RH  028%=      5-min Rain = 0
KOD1 171932Z 31008KT 12/M06 A3013 RMK A01 T01231058  RH  028%=      5-min Rain = 0
KOD1 171933Z 30007KT 12/M06 A3012 RMK A01 T01221059  RH  028%=      5-min Rain = 0
KOD1 171934Z 31006KT 12/M06 A3012 RMK A01 T01201060  RH  028%=      5-min Rain = 0
KOD1 171935Z 33005KT 12/M06 A3012 RMK A01 T01201056  RH  029%=      5-min Rain = 0
KOD1 171936Z 35008KT 12/M06 A3012 RMK A01 T01221058  RH  028%=      5-min Rain = 0
KOD1 171937Z 33008KT 12/M06 A3012 RMK A01 T01221061  RH  027%=      5-min Rain = 0
KOD1 171938Z 34009KT 12/M06 A3012 RMK A01 T01241058  RH  028%=      5-min Rain = 0
KOD1 171939Z 35010KT 13/M06 A3012 RMK A01 T01251060  RH  027%=      5-min Rain = 0
KOD1 171940Z 34012KT 12/M06 A3012 RMK A01 T01241062  RH  027%=      5-min Rain = 0
KOD1 171941Z 32010KT 12/M06 A3012 RMK A01 T01231063  RH  027%=      5-min Rain = 0
KOD1 171942Z 33009KT 12/M06 A3012 RMK A01 T01221063  RH  027%=      5-min Rain = 0
KOD1 171943Z 34009KT 12/M06 A3012 RMK A01 T01231060  RH  027%=      5-min Rain = 0
KOD1 171944Z 33009KT 12/M06 A3012 RMK A01 T01231062  RH  027%=      5-min Rain = 0
KOD1 171945Z 32007KT 12/M06 A3012 RMK A01 T01221061  RH  028%=      5-min Rain = 0
KOD1 171946Z 33008KT 12/M06 A3012 RMK A01 T01231058  RH  028%=      5-min Rain = 0
KOD1 171947Z 31006KT 12/M06 A3012 RMK A01 T01241060  RH  027%=      5-min Rain = 0
KOD1 171948Z 30004KT 12/M06 A3011 RMK A01 T01221062  RH  027%=      5-min Rain = 0
KOD1 171949Z 34005KT 12/M06 A3011 RMK A01 T01221056  RH  028%=      5-min Rain = 0
KOD1 171950Z 30007KT 12/M06 A3011 RMK A01 T01241060  RH  027%=      5-min Rain = 0
KOD1 171951Z 32007KT 13/M06 A3011 RMK A01 T01251063  RH  027%=      5-min Rain = 0
KOD1 171952Z 31009KT 13/M06 A3011 RMK A01 T01261059  RH  027%=      5-min Rain = 0
KOD1 171953Z 30008KT 13/M06 A3011 RMK A01 T01271061  RH  026%=      5-min Rain = 0
KOD1 171954Z 29010KT 13/M06 A3011 RMK A01 T01281059  RH  027%=      5-min Rain = 0
KOD1 171955Z 30008KT 13/M06 A3011 RMK A01 T01281061  RH  026%=      5-min Rain = 0
KOD1 171956Z 33007KT 13/M06 A3011 RMK A01 T01251063  RH  026%=      5-min Rain = 0
KOD1 171957Z 33007KT 13/M06 A3011 RMK A01 T01251061  RH  027%=      5-min Rain = 0
KOD1 171958Z 31008KT 13/M06 A3011 RMK A01 T01291056  RH  027%=      5-min Rain = 0
KOD1 171959Z 31005KT 13/M06 A3011 RMK A01 T01311059  RH  026%=      5-min Rain = 0
KOD1 172000Z 33009KT 13/M06 A3011 RMK A01 T01321059  RH  026%=      5-min Rain = 0
KOD1 172001Z 33008KT 13/M06 A3011 RMK A01 T01291064  RH  025%=      5-min Rain = 0
KOD1 172002Z 34008KT 13/M06 A3011 RMK A01 T01271063  RH  026%=      5-min Rain = 0
KOD1 172003Z 32008KT 13/M06 A3011 RMK A01 T01261064  RH  026%=      5-min Rain = 0
KOD1 172004Z 32004KT 13/M06 A3011 RMK A01 T01261063  RH  026%=      5-min Rain = 0
KOD1 172005Z 32004KT 13/M07 A3011 RMK A01 T01261065  RH  026%=      5-min Rain = 0
KOD1 172006Z 34007KT 13/M06 A3011 RMK A01 T01281060  RH  027%=      5-min Rain = 0
KOD1 172007Z 36006KT 13/M06 A3011 RMK A01 T01301063  RH  026%=      5-min Rain = 0
KOD1 172008Z 31006KT 13/M07 A3011 RMK A01 T01281065  RH  025%=      5-min Rain = 0
KOD1 172009Z 31009KT 13/M07 A3011 RMK A01 T01281068  RH  025%=      5-min Rain = 0
KOD1 172010Z 32010KT 13/M07 A3011 RMK A01 T01271070  RH  025%=      5-min Rain = 0
KOD1 172011Z 31010KT 13/M07 A3011 RMK A01 T01271069  RH  025%=      5-min Rain = 0
KOD1 172012Z 31009KT 13/M07 A3011 RMK A01 T01261070  RH  025%=      5-min Rain = 0
KOD1 172013Z 32010KT 13/M07 A3011 RMK A01 T01281067  RH  025%=      5-min Rain = 0
KOD1 172014Z 31008KT 13/M07 A3011 RMK A01 T01291070  RH  024%=      5-min Rain = 0
KOD1 172015Z 29008KT 13/M07 A3011 RMK A01 T01311066  RH  025%=      5-min Rain = 0
KOD1 172016Z 29007KT 13/M07 A3011 RMK A01 T01301069  RH  024%=      5-min Rain = 0
KOD1 172017Z 31005KT 13/M07 A3011 RMK A01 T01281071  RH  024%=      5-min Rain = 0
KOD1 172018Z 30003KT 13/M07 A3011 RMK A01 T01271068  RH  025%=      5-min Rain = 0
KOD1 172019Z 32005G11KT 13/M07 A3011 RMK A01 T01281066  RH  025%=      5-min Rain = 0
KOD1 172020Z 32006KT 13/M07 A3011 RMK A01 T01291068  RH  025%=      5-min Rain = 0
KOD1 172021Z 29007KT 13/M07 A3011 RMK A01 T01291068  RH  025%=      5-min Rain = 0
KOD1 172022Z 30008KT 13/M06 A3011 RMK A01 T01311064  RH  025%=      5-min Rain = 0
KOD1 172023Z 31007KT 13/M07 A3011 RMK A01 T01311069  RH  024%=      5-min Rain = 0
KOD1 172024Z 32010KT 13/M07 A3011 RMK A01 T01321071  RH  024%=      5-min Rain = 0
KOD1 172025Z 31008KT 13/M07 A3011 RMK A01 T01301073  RH  024%=      5-min Rain = 0
KOD1 172026Z 32008KT 13/M07 A3011 RMK A01 T01311070  RH  024%=      5-min Rain = 0
KOD1 172027Z 32005KT 13/M07 A3011 RMK A01 T01291074  RH  024%=      5-min Rain = 0
KOD1 172028Z 32009KT 13/M07 A3011 RMK A01 T01281071  RH  024%=      5-min Rain = 0
KOD1 172029Z 33010KT 13/M07 A3011 RMK A01 T01281071  RH  024%=      5-min Rain = 0
KOD1 172030Z 33011KT 13/M07 A3011 RMK A01 T01291071  RH  024%=      5-min Rain = 0
KOD1 172031Z 34008KT 13/M07 A3011 RMK A01 T01271074  RH  024%=      5-min Rain = 0
KOD1 172032Z 34007KT 13/M07 A3011 RMK A01 T01261071  RH  025%=      5-min Rain = 0
KOD1 172033Z 34007KT 13/M07 A3011 RMK A01 T01271071  RH  024%=      5-min Rain = 0
KOD1 172034Z 34007KT 13/M07 A3011 RMK A01 T01271072  RH  024%=      5-min Rain = 0
KOD1 172035Z 33005KT 13/M07 A3011 RMK A01 T01271072  RH  024%=      5-min Rain = 0
KOD1 172036Z 32002KT 13/M07 A3011 RMK A01 T01271073  RH  024%=      5-min Rain = 0
KOD1 172037Z 32005KT 13/M07 A3011 RMK A01 T01291069  RH  025%=      5-min Rain = 0
KOD1 172038Z 30006KT 13/M07 A301 RMK A01 T01301071  RH  024%=      5-min Rain = 0
KOD1 172039Z 32006KT 13/M07 A301 RMK A01 T01301070  RH  024%=      5-min Rain = 0
KOD1 172040Z 32006KT 13/M07 A301 RMK A01 T01301072  RH  024%=      5-min Rain = 0
KOD1 172041Z 30008KT 13/M07 A301 RMK A01 T01311068  RH  024%=      5-min Rain = 0
KOD1 172042Z 30010KT 14/M07 A301 RMK A01 T01351070  RH  024%=      5-min Rain = 0
KOD1 172043Z 30011KT 13/M07 A301 RMK A01 T01341074  RH  023%=      5-min Rain = 0
KOD1 172044Z 31008KT 13/M08 A301 RMK A01 T01311076  RH  023%=      5-min Rain = 0
KOD1 172045Z 31011KT 13/M08 A301 RMK A01 T01311075  RH  023%=      5-min Rain = 0
KOD1 172046Z 32009KT 13/M08 A301 RMK A01 T01311077  RH  023%=      5-min Rain = 0
KOD1 172047Z 31007KT 13/M08 A301 RMK A01 T01301077  RH  023%=      5-min Rain = 0
KOD1 172048Z 33004KT 13/M08 A301 RMK A01 T01301077  RH  023%=      5-min Rain = 0
KOD1 172049Z 33007KT 13/M08 A301 RMK A01 T01301076  RH  023%=      5-min Rain = 0
KOD1 172050Z 33007KT 13/M08 A301 RMK A01 T01301076  RH  023%=      5-min Rain = 0
KOD1 172051Z 34008KT 13/M08 A301 RMK A01 T01301077  RH  023%=      5-min Rain = 0
KOD1 172052Z 34010KT 13/M08 A301 RMK A01 T01311077  RH  023%=      5-min Rain = 0
KOD1 172053Z 34009KT 13/M08 A301 RMK A01 T01311078  RH  023%=      5-min Rain = 0
KOD1 172054Z 34010KT 13/M08 A301 RMK A01 T01321077  RH  023%=      5-min Rain = 0
KOD1 172055Z 32008KT 13/M08 A301 RMK A01 T01331075  RH  023%=      5-min Rain = 0
KOD1 172056Z 31007KT 13/M08 A301 RMK A01 T01341076  RH  023%=      5-min Rain = 0
KOD1 172057Z 34006KT 13/M08 A301 RMK A01 T01331080  RH  022%=      5-min Rain = 0
KOD1 172058Z 33005KT 13/M08 A301 RMK A01 T01331076  RH  023%=      5-min Rain = 0
KOD1 172059Z 32006KT 13/M08 A301 RMK A01 T01331081  RH  022%=      5-min Rain = 0
KOD1 172100Z 30009KT 13/M08 A301 RMK A01 T01331077  RH  023%=      5-min Rain = 0
KOD1 172101Z 30009KT 13/M08 A301 RMK A01 T01341076  RH  023%=      5-min Rain = 0
KOD1 172102Z 32011KT 13/M08 A301 RMK A01 T01341076  RH  022%=      5-min Rain = 0
KOD1 172103Z 32009KT 13/M08 A301 RMK A01 T01331077  RH  023%=      5-min Rain = 0
KOD1 172104Z 32007KT 13/M08 A301 RMK A01 T01311080  RH  022%=      5-min Rain = 0
KOD1 172105Z 30010KT 13/M08 A301 RMK A01 T01311077  RH  023%=      5-min Rain = 0
KOD1 172106Z 30009KT 13/M08 A301 RMK A01 T01311079  RH  022%=      5-min Rain = 0
KOD1 172107Z 31008KT 13/M08 A301 RMK A01 T01311077  RH  023%=      5-min Rain = 0
KOD1 172108Z 30007KT 13/M08 A301 RMK A01 T01301076  RH  023%=      5-min Rain = 0
KOD1 172109Z 30006KT 13/M08 A301 RMK A01 T01301077  RH  023%=      5-min Rain = 0
KOD1 172110Z 31012KT 13/M07 A301 RMK A01 T01321073  RH  023%=      5-min Rain = 0
KOD1 172111Z 29010KT 13/M07 A301 RMK A01 T01311074  RH  023%=      5-min Rain = 0
KOD1 172112Z 30010KT 13/M07 A301 RMK A01 T01301072  RH  024%=      5-min Rain = 0
KOD1 172113Z 30008KT 13/M08 A301 RMK A01 T01301076  RH  023%=      5-min Rain = 0
KOD1 172114Z 29007KT 13/M07 A301 RMK A01 T01301074  RH  024%=      5-min Rain = 0
KOD1 172115Z 30011KT 13/M07 A301 RMK A01 T01301074  RH  024%=      5-min Rain = 0
KOD1 172116Z 31008KT 13/M07 A301 RMK A01 T01311074  RH  023%=      5-min Rain = 0
KOD1 172117Z 30007KT 13/M07 A301 RMK A01 T01321074  RH  023%=      5-min Rain = 0
KOD1 172118Z 31010KT 13/M07 A301 RMK A01 T01321073  RH  023%=      5-min Rain = 0
KOD1 172119Z 31010KT 13/M07 A301 RMK A01 T01321073  RH  023%=      5-min Rain = 0
KOD1 172120Z 31008KT 13/M07 A301 RMK A01 T01321074  RH  023%=      5-min Rain = 0
KOD1 172121Z 31007KT 13/M08 A301 RMK A01 T01321075  RH  023%=      5-min Rain = 0
KOD1 172122Z 31007KT 13/M07 A301 RMK A01 T01321074  RH  023%=      5-min Rain = 0
KOD1 172123Z 30005KT 13/M07 A301 RMK A01 T01321073  RH  023%=      5-min Rain = 0
KOD1 172124Z 31010KT 13/M07 A301 RMK A01 T01331071  RH  024%=      5-min Rain = 0
KOD1 172125Z 31010KT 13/M07 A301 RMK A01 T01341070  RH  024%=      5-min Rain = 0
KOD1 172126Z 28009KT 13/M07 A301 RMK A01 T01331072  RH  023%=      5-min Rain = 0
KOD1 172127Z 29010KT 13/M07 A3009 RMK A01 T01331071  RH  023%=      5-min Rain = 0
KOD1 172128Z 30009KT 13/M07 A3009 RMK A01 T01341068  RH  024%=      5-min Rain = 0
KOD1 172129Z 31008KT 14/M07 A301 RMK A01 T01351070  RH  023%=      5-min Rain = 0
KOD1 172130Z 32006KT 13/M07 A301 RMK A01 T01331072  RH  023%=      5-min Rain = 0
KOD1 172131Z 32007KT 13/M07 A3009 RMK A01 T01341068  RH  024%=      5-min Rain = 0
KOD1 172132Z 31007KT 13/M07 A3009 RMK A01 T01341069  RH  024%=      5-min Rain = 0
KOD1 172133Z 31006KT 13/M07 A3009 RMK A01 T01331070  RH  024%=      5-min Rain = 0
KOD1 172134Z 31007KT 14/M06 A3009 RMK A01 T01351064  RH  024%=      5-min Rain = 0
KOD1 172135Z 32008KT 14/M07 A3009 RMK A01 T01371067  RH  024%=      5-min Rain = 0
KOD1 172136Z 33007KT 14/M07 A3009 RMK A01 T01361070  RH  023%=      5-min Rain = 0
KOD1 172137Z 32007KT 14/M07 A3009 RMK A01 T01351069  RH  024%=      5-min Rain = 0
KOD1 172138Z 30008KT 14/M07 A3009 RMK A01 T01351069  RH  024%=      5-min Rain = 0
KOD1 172139Z 30008KT 14/M07 A3009 RMK A01 T01351068  RH  024%=      5-min Rain = 0
KOD1 172140Z 30007KT 14/M07 A3009 RMK A01 T01351068  RH  024%=      5-min Rain = 0
KOD1 172141Z 29006KT 13/M07 A3009 RMK A01 T01341070  RH  024%=      5-min Rain = 0
KOD1 172142Z 28008KT 14/M07 A3009 RMK A01 T01351066  RH  024%=      5-min Rain = 0
KOD1 172143Z 28008KT 13/M07 A3009 RMK A01 T01341071  RH  024%=      5-min Rain = 0
KOD1 172144Z 28007KT 13/M07 A3009 RMK A01 T01331069  RH  024%=      5-min Rain = 0
KOD1 172145Z 28006KT 13/M07 A3009 RMK A01 T01331070  RH  024%=      5-min Rain = 0
KOD1 172146Z 28006KT 13/M07 A3009 RMK A01 T01331068  RH  024%=      5-min Rain = 0
KOD1 172147Z 29006KT 13/M07 A3009 RMK A01 T01331069  RH  024%=      5-min Rain = 0
KOD1 172148Z 30007KT 13/M07 A3009 RMK A01 T01331067  RH  024%=      5-min Rain = 0
KOD1 172149Z 30006KT 13/M07 A3009 RMK A01 T01331068  RH  024%=      5-min Rain = 0
KOD1 172150Z 30007KT 13/M07 A3009 RMK A01 T01341066  RH  024%=      5-min Rain = 0
KOD1 172151Z 31007KT 14/M06 A3009 RMK A01 T01351064  RH  024%=      5-min Rain = 0
KOD1 172152Z 31007KT 14/M07 A3009 RMK A01 T01351067  RH  024%=      5-min Rain = 0
KOD1 172153Z 30007KT 13/M07 A3009 RMK A01 T01341068  RH  024%=      5-min Rain = 0
KOD1 172154Z 30006KT 13/M07 A3009 RMK A01 T01341069  RH  024%=      5-min Rain = 0
KOD1 172155Z 30006KT 13/M07 A3009 RMK A01 T01331070  RH  024%=      5-min Rain = 0
KOD1 172156Z 30007KT 13/M07 A3009 RMK A01 T01341066  RH  024%=      5-min Rain = 0
KOD1 172157Z 29007KT 14/M07 A3009 RMK A01 T01351067  RH  024%=      5-min Rain = 0
KOD1 172158Z 27006KT 14/M07 A3009 RMK A01 T01361065  RH  024%=      5-min Rain = 0
KOD1 172159Z 29006KT 14/M07 A3009 RMK A01 T01361066  RH  024%=      5-min Rain = 0
KOD1 172200Z 31005KT 14/M07 A3009 RMK A01 T01371065  RH  024%=      5-min Rain = 0
KOD1 172201Z 32004KT 14/M07 A3009 RMK A01 T01361068  RH  024%=      5-min Rain = 0
KOD1 172202Z 31006KT 14/M07 A3009 RMK A01 T01351068  RH  024%=      5-min Rain = 0
KOD1 172203Z 31005KT 13/M07 A3008 RMK A01 T01341067  RH  024%=      5-min Rain = 0
KOD1 172204Z 32008KT 14/M07 A3008 RMK A01 T01351066  RH  024%=      5-min Rain = 0
KOD1 172205Z 30005KT 14/M07 A3008 RMK A01 T01351066  RH  024%=      5-min Rain = 0
KOD1 172206Z 30007KT 13/M07 A3008 RMK A01 T01341067  RH  024%=      5-min Rain = 0
KOD1 172207Z 30007KT 14/M07 A3008 RMK A01 T01351066  RH  024%=      5-min Rain = 0
KOD1 172208Z 29007KT 14/M07 A3008 RMK A01 T01351066  RH  024%=      5-min Rain = 0
KOD1 172209Z 30009KT 13/M06 A3008 RMK A01 T01341064  RH  025%=      5-min Rain = 0
KOD1 172210Z 30009KT 13/M07 A3008 RMK A01 T01331066  RH  024%=      5-min Rain = 0
KOD1 172211Z 29007KT 13/M07 A3008 RMK A01 T01321069  RH  024%=      5-min Rain = 0
KOD1 172212Z 29007KT 13/M07 A3008 RMK A01 T01311067  RH  025%=      5-min Rain = 0
KOD1 172213Z 29006KT 13/M07 A3008 RMK A01 T01331065  RH  025%=      5-min Rain = 0
KOD1 172214Z 28006KT 14/M06 A3008 RMK A01 T01351061  RH  025%=      5-min Rain = 0
KOD1 172215Z 26006KT 14/M06 A3008 RMK A01 T01351062  RH  025%=      5-min Rain = 0
KOD1 172216Z 26006KT 14/M06 A3008 RMK A01 T01361060  RH  025%=      5-min Rain = 0
KOD1 172217Z 26007KT 14/M06 A3008 RMK A01 T01351062  RH  025%=      5-min Rain = 0
KOD1 172218Z 25006KT 13/M07 A3008 RMK A01 T01341065  RH  025%=      5-min Rain = 0
KOD1 172219Z 25005KT 13/M06 A3008 RMK A01 T01331062  RH  025%=      5-min Rain = 0
KOD1 172220Z 24005KT 13/M06 A3008 RMK A01 T01341063  RH  025%=      5-min Rain = 0
KOD1 172221Z 24005KT 13/M06 A3008 RMK A01 T01341062  RH  025%=      5-min Rain = 0
KOD1 172222Z 25004KT 14/M07 A3008 RMK A01 T01351067  RH  024%=      5-min Rain = 0
KOD1 172223Z 24004KT 14/M07 A3008 RMK A01 T01351066  RH  024%=      5-min Rain = 0
KOD1 172224Z 24005KT 14/M06 A3008 RMK A01 T01351064  RH  024%=      5-min Rain = 0
KOD1 172225Z 26007KT 14/M06 A3008 RMK A01 T01361059  RH  025%=      5-min Rain = 0
KOD1 172226Z 27008KT 14/M06 A3007 RMK A01 T01381060  RH  025%=      5-min Rain = 0
KOD1 172227Z 28008KT 14/M06 A3007 RMK A01 T01371062  RH  025%=      5-min Rain = 0
KOD1 172228Z 27007KT 14/M06 A3007 RMK A01 T01361064  RH  024%=      5-min Rain = 0
KOD1 172229Z 27007KT 14/M06 A3007 RMK A01 T01351064  RH  024%=      5-min Rain = 0
KOD1 172230Z 28007KT 14/M07 A3007 RMK A01 T01351066  RH  024%=      5-min Rain = 0
KOD1 172231Z 29007KT 14/M07 A3007 RMK A01 T01351065  RH  025%=      5-min Rain = 0
KOD1 172232Z 28007KT 14/M06 A3007 RMK A01 T01351064  RH  025%=      5-min Rain = 0
KOD1 172233Z 27008KT 14/M07 A3007 RMK A01 T01351065  RH  025%=      5-min Rain = 0
KOD1 172234Z 27007KT 13/M07 A3008 RMK A01 T01341065  RH  025%=      5-min Rain = 0
KOD1 172235Z 26007KT 13/M06 A3008 RMK A01 T01341063  RH  025%=      5-min Rain = 0
KOD1 172236Z 26007KT 13/M06 A3008 RMK A01 T01341064  RH  025%=      5-min Rain = 0
KOD1 172237Z 27006KT 13/M06 A3008 RMK A01 T01331064  RH  025%=      5-min Rain = 0
KOD1 172238Z 26006KT 13/M06 A3008 RMK A01 T01341062  RH  025%=      5-min Rain = 0
KOD1 172239Z 25006KT 13/M06 A3007 RMK A01 T01341061  RH  025%=      5-min Rain = 0
KOD1 172240Z 26005KT 13/M06 A3007 RMK A01 T01341062  RH  025%=      5-min Rain = 0
KOD1 172241Z 24005KT 13/M06 A3007 RMK A01 T01341057  RH  026%=      5-min Rain = 0
KOD1 172242Z 24005KT 14/M06 A3007 RMK A01 T01351061  RH  025%=      5-min Rain = 0
KOD1 172243Z 25005KT 13/M06 A3007 RMK A01 T01341063  RH  025%=      5-min Rain = 0
KOD1 172244Z 25005KT 13/M06 A3008 RMK A01 T01341062  RH  025%=      5-min Rain = 0
KOD1 172245Z 27005KT 13/M06 A3008 RMK A01 T01341061  RH  025%=      5-min Rain = 0
KOD1 172246Z 24004KT 13/M07 A3008 RMK A01 T01331065  RH  025%=      5-min Rain = 0
KOD1 172247Z 25004KT 13/M06 A3008 RMK A01 T01331064  RH  025%=      5-min Rain = 0
KOD1 172248Z 25002KT 13/M06 A3008 RMK A01 T01341062  RH  025%=      5-min Rain = 0
KOD1 172249Z 26003KT 14/M06 A3008 RMK A01 T01351060  RH  025%=      5-min Rain = 0
KOD1 172250Z 25004KT 14/M06 A3008 RMK A01 T01351062  RH  025%=      5-min Rain = 0
KOD1 172251Z 26005KT 13/M06 A3008 RMK A01 T01341061  RH  025%=      5-min Rain = 0
KOD1 172252Z 26005KT 13/M06 A3008 RMK A01 T01341060  RH  025%=      5-min Rain = 0
KOD1 172253Z 27005KT 13/M06 A3007 RMK A01 T01341060  RH  025%=      5-min Rain = 0
KOD1 172254Z 26006KT 13/M06 A3007 RMK A01 T01331062  RH  025%=      5-min Rain = 0
KOD1 172255Z 25006KT 13/M06 A3007 RMK A01 T01331057  RH  026%=      5-min Rain = 0
KOD1 172256Z 26005KT 13/M06 A3007 RMK A01 T01321059  RH  026%=      5-min Rain = 0
KOD1 172257Z 25006KT 13/M06 A3007 RMK A01 T01321058  RH  026%=      5-min Rain = 0
KOD1 172258Z 25006KT 13/M05 A3007 RMK A01 T01311054  RH  027%=      5-min Rain = 0
KOD1 172259Z 26006KT 13/M06 A3007 RMK A01 T01301056  RH  027%=      5-min Rain = 0
KOD1 172300Z 25006KT 13/M06 A3007 RMK A01 T01301059  RH  026%=      5-min Rain = 0
KOD1 172301Z 25005KT 13/M06 A3007 RMK A01 T01301056  RH  027%=      5-min Rain = 0
KOD1 172302Z 24005KT 13/M06 A3007 RMK A01 T01301055  RH  027%=      5-min Rain = 0
KOD1 172303Z 24004KT 13/M05 A3007 RMK A01 T01291052  RH  028%=      5-min Rain = 0
KOD1 172304Z 24004KT 13/M05 A3007 RMK A01 T01291050  RH  028%=      5-min Rain = 0
KOD1 172305Z 24004KT 13/M05 A3007 RMK A01 T01291048  RH  029%=      5-min Rain = 0
KOD1 172306Z 24003KT 13/M05 A3007 RMK A01 T01291047  RH  029%=      5-min Rain = 0
KOD1 172307Z 25003KT 13/M05 A3007 RMK A01 T01291047  RH  029%=      5-min Rain = 0
KOD1 172308Z 26003KT 13/M05 A3007 RMK A01 T01291048  RH  029%=      5-min Rain = 0
KOD1 172309Z 25003KT 13/M05 A3007 RMK A01 T01291054  RH  027%=      5-min Rain = 0
KOD1 172310Z 28003KT 13/M06 A3007 RMK A01 T01291056  RH  027%=      5-min Rain = 0
KOD1 172311Z 28004KT 13/M05 A3007 RMK A01 T01291054  RH  028%=      5-min Rain = 0
KOD1 172312Z 27004KT 13/M05 A3007 RMK A01 T01281054  RH  028%=      5-min Rain = 0
KOD1 172313Z 26004KT 13/M05 A3007 RMK A01 T01271051  RH  028%=      5-min Rain = 0
KOD1 172314Z 26005KT 13/M05 A3007 RMK A01 T01261050  RH  029%=      5-min Rain = 0
KOD1 172315Z 25005KT 12/M05 A3007 RMK A01 T01241049  RH  029%=      5-min Rain = 0
KOD1 172316Z 25005KT 12/M05 A3007 RMK A01 T01231048  RH  030%=      5-min Rain = 0
KOD1 172317Z 25005KT 12/M05 A3007 RMK A01 T01211046  RH  031%=      5-min Rain = 0
KOD1 172318Z 25005KT 12/M05 A3007 RMK A01 T01201046  RH  031%=      5-min Rain = 0
KOD1 172319Z 25005KT 12/M05 A3007 RMK A01 T01191045  RH  032%=      5-min Rain = 0
KOD1 172320Z 25005KT 12/M04 A3007 RMK A01 T01171044  RH  032%=      5-min Rain = 0
KOD1 172321Z 25005KT 12/M04 A3007 RMK A01 T01151044  RH  033%=      5-min Rain = 0
KOD1 172322Z 24005KT 11/M04 A3007 RMK A01 T01141044  RH  033%=      5-min Rain = 0
KOD1 172323Z 24005KT 11/M04 A3007 RMK A01 T01121044  RH  033%=      5-min Rain = 0
KOD1 172324Z 24005KT 11/M05 A3007 RMK A01 T01111045  RH  033%=      5-min Rain = 0
KOD1 172325Z 24005KT 11/M05 A3007 RMK A01 T01101045  RH  034%=      5-min Rain = 0
KOD1 172326Z 24005KT 11/M04 A3007 RMK A01 T01081044  RH  034%=      5-min Rain = 0
KOD1 172327Z 24005KT 11/M04 A3007 RMK A01 T01071044  RH  034%=      5-min Rain = 0
KOD1 172328Z 23005KT 11/M04 A3007 RMK A01 T01061042  RH  035%=      5-min Rain = 0
KOD1 172329Z 23005KT 11/M04 A3007 RMK A01 T01051043  RH  035%=      5-min Rain = 0
KOD1 172330Z 24005KT 10/M04 A3007 RMK A01 T01041042  RH  036%=      5-min Rain = 0
KOD1 172331Z 24005KT 10/M04 A3007 RMK A01 T01031040  RH  037%=      5-min Rain = 0
KOD1 172332Z 24006KT 10/M04 A3007 RMK A01 T01021037  RH  037%=      5-min Rain = 0
KOD1 172333Z 24006KT 10/M04 A3007 RMK A01 T01011037  RH  037%=      5-min Rain = 0
KOD1 172334Z 24005KT 10/M04 A3007 RMK A01 T01011038  RH  037%=      5-min Rain = 0
KOD1 172335Z 24005KT 10/M04 A3007 RMK A01 T01001039  RH  037%=      5-min Rain = 0
KOD1 172336Z 24005KT 10/M04 A3007 RMK A01 T00991039  RH  037%=      5-min Rain = 0
KOD1 172337Z 24006KT 10/M04 A3007 RMK A01 T00981040  RH  037%=      5-min Rain = 0
KOD1 172338Z 25006KT 10/M04 A3007 RMK A01 T00971040  RH  038%=      5-min Rain = 0
KOD1 172339Z 25006KT 10/M04 A3007 RMK A01 T00961040  RH  038%=      5-min Rain = 0
KOD1 172340Z 24005KT 10/M04 A3007 RMK A01 T00951039  RH  039%=      5-min Rain = 0
KOD1 172341Z 24006KT 09/M04 A3007 RMK A01 T00941035  RH  040%=      5-min Rain = 0
KOD1 172342Z 24006KT 09/M04 A3007 RMK A01 T00931035  RH  040%=      5-min Rain = 0
KOD1 172343Z 24006KT 09/M03 A3007 RMK A01 T00911033  RH  041%=      5-min Rain = 0
KOD1 172344Z 23006KT 09/M03 A3007 RMK A01 T00901033  RH  042%=      5-min Rain = 0
KOD1 172345Z 23006KT 09/M03 A3007 RMK A01 T00881033  RH  042%=      5-min Rain = 0
KOD1 172346Z 23006KT 09/M03 A3007 RMK A01 T00871032  RH  043%=      5-min Rain = 0
KOD1 172347Z 23006KT 09/M03 A3007 RMK A01 T00851031  RH  044%=      5-min Rain = 0
KOD1 172348Z 22006KT 08/M03 A3007 RMK A01 T00831030  RH  045%=      5-min Rain = 0
KOD1 172349Z 23006KT 08/M03 A3007 RMK A01 T00821028  RH  046%=      5-min Rain = 0
KOD1 172350Z 23006KT 08/M03 A3007 RMK A01 T00801026  RH  047%=      5-min Rain = 0
KOD1 172351Z 23005KT 08/M03 A3007 RMK A01 T00781025  RH  048%=      5-min Rain = 0
KOD1 172352Z 23005KT 08/M03 A3007 RMK A01 T00761028  RH  048%=      5-min Rain = 0
KOD1 172353Z 22005KT 07/M03 A3007 RMK A01 T00741032  RH  047%=      5-min Rain = 0
KOD1 172354Z 22006KT 07/M03 A3007 RMK A01 T00741034  RH  046%=      5-min Rain = 0
KOD1 172355Z 22006KT 07/M03 A3007 RMK A01 T00741034  RH  046%=      5-min Rain = 0
KOD1 172356Z 22006KT 07/M03 A3007 RMK A01 T00741034  RH  046%=      5-min Rain = 0
KOD1 172357Z 22006KT 07/M03 A3007 RMK A01 T00731034  RH  047%=      5-min Rain = 0
KOD1 172358Z 22007KT 07/M03 A3007 RMK A01 T00721034  RH  047%=      5-min Rain = 0
KOD1 172359Z 22007KT 07/M03 A3007 RMK A01 T00721033  RH  047%=      5-min Rain = 0
KOD1 180000Z 22006KT 07/M03 A3007 RMK A01 T00721033  RH  047%=      5-min Rain = 0
KOD1 180001Z 22007KT 07/M03 A3007 RMK A01 T00721033  RH  047%=      5-min Rain = 0
KOD1 180002Z 22007KT 07/M03 A3007 RMK A01 T00721033  RH  047%=      5-min Rain = 0
KOD1 180003Z 22006KT 07/M03 A3007 RMK A01 T00711034  RH  047%=      5-min Rain = 0
KOD1 180004Z 22006KT 07/M03 A3007 RMK A01 T00711034  RH  047%=      5-min Rain = 0
KOD1 180005Z 22006KT 07/M04 A3007 RMK A01 T00721035  RH  047%=      5-min Rain = 0
KOD1 180006Z 21006KT 07/M04 A3007 RMK A01 T00731035  RH  047%=      5-min Rain = 0
KOD1 180007Z 21006KT 07/M03 A3007 RMK A01 T00731033  RH  047%=      5-min Rain = 0
KOD1 180008Z 21006KT 07/M03 A3007 RMK A01 T00721032  RH  047%=      5-min Rain = 0
KOD1 180009Z 21006KT 07/M03 A3007 RMK A01 T00711032  RH  048%=      5-min Rain = 0
KOD1 180010Z 21006KT 07/M03 A3007 RMK A01 T00711032  RH  048%=      5-min Rain = 0
KOD1 180011Z 20006KT 07/M03 A3007 RMK A01 T00711033  RH  048%=      5-min Rain = 0
KOD1 180012Z 21006KT 07/M03 A3007 RMK A01 T00711034  RH  047%=      5-min Rain = 0
KOD1 180013Z 20006KT 07/M03 A3007 RMK A01 T00721034  RH  047%=      5-min Rain = 0
KOD1 180014Z 20006KT 07/M04 A3007 RMK A01 T00731035  RH  046%=      5-min Rain = 0
KOD1 180015Z 20006KT 07/M04 A3007 RMK A01 T00741036  RH  046%=      5-min Rain = 0
KOD1 180016Z 20006KT 08/M04 A3007 RMK A01 T00751036  RH  045%=      5-min Rain = 0
KOD1 180017Z 20006KT 08/M04 A3007 RMK A01 T00751036  RH  045%=      5-min Rain = 0
KOD1 180018Z 20006KT 07/M04 A3007 RMK A01 T00741035  RH  046%=      5-min Rain = 0
KOD1 180019Z 20006KT 07/M03 A3007 RMK A01 T00731034  RH  046%=      5-min Rain = 0
KOD1 180020Z 20006KT 07/M03 A3007 RMK A01 T00711034  RH  047%=      5-min Rain = 0
KOD1 180021Z 20006KT 07/M03 A3007 RMK A01 T00701034  RH  047%=      5-min Rain = 0
KOD1 180022Z 20006KT 07/M03 A3007 RMK A01 T00691034  RH  048%=      5-min Rain = 0
KOD1 180023Z 20006KT 07/M03 A3007 RMK A01 T00681033  RH  048%=      5-min Rain = 0
KOD1 180024Z 20006KT 07/M03 A3007 RMK A01 T00671033  RH  049%=      5-min Rain = 0
KOD1 180025Z 20005KT 07/M03 A3007 RMK A01 T00661033  RH  049%=      5-min Rain = 0
KOD1 180026Z 20005KT 07/M04 A3007 RMK A01 T00651035  RH  049%=      5-min Rain = 0
KOD1 180027Z 20005KT 07/M04 A3007 RMK A01 T00651035  RH  049%=      5-min Rain = 0
KOD1 180028Z 20005KT 07/M04 A3007 RMK A01 T00651035  RH  049%=      5-min Rain = 0
KOD1 180029Z 20005KT 07/M04 A3007 RMK A01 T00651036  RH  049%=      5-min Rain = 0
KOD1 180030Z 20006KT 07/M04 A3007 RMK A01 T00651036  RH  048%=      5-min Rain = 0
KOD1 180031Z 20006KT 07/M04 A3007 RMK A01 T00651037  RH  048%=      5-min Rain = 0
KOD1 180032Z 20006KT 07/M04 A3007 RMK A01 T00651037  RH  048%=      5-min Rain = 0
KOD1 180033Z 20006KT 07/M04 A3007 RMK A01 T00661037  RH  048%=      5-min Rain = 0
KOD1 180034Z 20006KT 07/M04 A3007 RMK A01 T00661037  RH  048%=      5-min Rain = 0
KOD1 180035Z 20006KT 07/M04 A3007 RMK A01 T00671037  RH  048%=      5-min Rain = 0
KOD1 180036Z 20006KT 07/M04 A3007 RMK A01 T00671037  RH  048%=      5-min Rain = 0
KOD1 180037Z 20006KT 07/M04 A3007 RMK A01 T00671036  RH  048%=      5-min Rain = 0
KOD1 180038Z 20006KT 07/M04 A3007 RMK A01 T00661036  RH  048%=      5-min Rain = 0
KOD1 180039Z 20006KT 07/M04 A3007 RMK A01 T00651035  RH  049%=      5-min Rain = 0
KOD1 180040Z 20006KT 06/M04 A3007 RMK A01 T00641035  RH  049%=      5-min Rain = 0
KOD1 180041Z 20006KT 06/M03 A3007 RMK A01 T00631034  RH  050%=      5-min Rain = 0
KOD1 180042Z 20006KT 06/M03 A3007 RMK A01 T00621034  RH  050%=      5-min Rain = 0
KOD1 180043Z 20006KT 06/M03 A3007 RMK A01 T00611034  RH  050%=      5-min Rain = 0
KOD1 180044Z 20006KT 06/M03 A3007 RMK A01 T00611034  RH  050%=      5-min Rain = 0
KOD1 180045Z 20006KT 06/M03 A3007 RMK A01 T00611034  RH  050%=      5-min Rain = 0
KOD1 180046Z 20006KT 06/M03 A3007 RMK A01 T00611034  RH  050%=      5-min Rain = 0
KOD1 180047Z 20007KT 06/M04 A3007 RMK A01 T00611035  RH  050%=      5-min Rain = 0
KOD1 180048Z 20007KT 06/M04 A3007 RMK A01 T00611035  RH  050%=      5-min Rain = 0
KOD1 180049Z 20006KT 06/M03 A3007 RMK A01 T00611034  RH  051%=      5-min Rain = 0
KOD1 180050Z 20006KT 06/M03 A3007 RMK A01 T00601034  RH  051%=      5-min Rain = 0
KOD1 180051Z 20006KT 06/M03 A3007 RMK A01 T00591033  RH  052%=      5-min Rain = 0
KOD1 180052Z 20006KT 06/M03 A3007 RMK A01 T00581033  RH  052%=      5-min Rain = 0
KOD1 180053Z 20007KT 06/M03 A3007 RMK A01 T00581033  RH  052%=      5-min Rain = 0
KOD1 180054Z 20006KT 06/M03 A3007 RMK A01 T00591034  RH  051%=      5-min Rain = 0
KOD1 180055Z 20006KT 06/M03 A3007 RMK A01 T00591033  RH  052%=      5-min Rain = 0
KOD1 180056Z 20006KT 06/M03 A3007 RMK A01 T00591033  RH  052%=      5-min Rain = 0
KOD1 180057Z 20006KT 06/M03 A3007 RMK A01 T00591033  RH  052%=      5-min Rain = 0
KOD1 180058Z 20006KT 06/M03 A3007 RMK A01 T00591033  RH  052%=      5-min Rain = 0
KOD1 180059Z 19006KT 06/M03 A3007 RMK A01 T00591033  RH  052%=      5-min Rain = 0
KOD1 180100Z 19006KT 06/M03 A3007 RMK A01 T00591032  RH  052%=      5-min Rain = 0
KOD1 180101Z 20006KT 06/M03 A3007 RMK A01 T00581031  RH  053%=      5-min Rain = 0
KOD1 180102Z 20007KT 06/M03 A3007 RMK A01 T00571031  RH  053%=      5-min Rain = 0
KOD1 180103Z 20006KT 06/M03 A3007 RMK A01 T00571031  RH  053%=      5-min Rain = 0
KOD1 180104Z 19006KT 06/M03 A3007 RMK A01 T00561031  RH  053%=      5-min Rain = 0
KOD1 180105Z 20006KT 06/M03 A3007 RMK A01 T00561031  RH  054%=      5-min Rain = 0
KOD1 180106Z 20007KT 06/M03 A3007 RMK A01 T00551031  RH  054%=      5-min Rain = 0
KOD1 180107Z 20007KT 06/M03 A3007 RMK A01 T00561031  RH  054%=      5-min Rain = 0
KOD1 180108Z 20007KT 06/M03 A3007 RMK A01 T00571031  RH  053%=      5-min Rain = 0
KOD1 180109Z 20007KT 06/M03 A3007 RMK A01 T00571032  RH  053%=      5-min Rain = 0
KOD1 180110Z 20007KT 06/M03 A3007 RMK A01 T00571032  RH  053%=      5-min Rain = 0
KOD1 180111Z 20007KT 06/M03 A3007 RMK A01 T00561031  RH  053%=      5-min Rain = 0
KOD1 180112Z 20006KT 06/M03 A3007 RMK A01 T00551031  RH  054%=      5-min Rain = 0
KOD1 180113Z 20007KT 06/M03 A3007 RMK A01 T00551032  RH  053%=      5-min Rain = 0
KOD1 180114Z 20007KT 06/M03 A3007 RMK A01 T00561032  RH  053%=      5-min Rain = 0
KOD1 180115Z 19006KT 06/M03 A3007 RMK A01 T00561032  RH  053%=      5-min Rain = 0
KOD1 180116Z 20006KT 06/M03 A3007 RMK A01 T00561032  RH  053%=      5-min Rain = 0
KOD1 180117Z 19006KT 06/M03 A3007 RMK A01 T00551031  RH  054%=      5-min Rain = 0
KOD1 180118Z 19006KT 06/M03 A3007 RMK A01 T00551031  RH  054%=      5-min Rain = 0
KOD1 180119Z 19006KT 05/M03 A3007 RMK A01 T00541031  RH  054%=      5-min Rain = 0
KOD1 180120Z 19007KT 05/M03 A3007 RMK A01 T00531031  RH  055%=      5-min Rain = 0
KOD1 180121Z 19007KT 05/M03 A3007 RMK A01 T00521031  RH  055%=      5-min Rain = 0
KOD1 180122Z 19007KT 05/M03 A3007 RMK A01 T00521031  RH  055%=      5-min Rain = 0
KOD1 180123Z 19007KT 05/M03 A3007 RMK A01 T00511031  RH  055%=      5-min Rain = 0
KOD1 180124Z 20007KT 05/M03 A3006 RMK A01 T00511031  RH  055%=      5-min Rain = 0
KOD1 180125Z 20008KT 05/M03 A3006 RMK A01 T00521031  RH  055%=      5-min Rain = 0
KOD1 180126Z 20007KT 05/M03 A3006 RMK A01 T00541031  RH  054%=      5-min Rain = 0
KOD1 180127Z 20008KT 06/M03 A3006 RMK A01 T00551032  RH  054%=      5-min Rain = 0
KOD1 180128Z 19008KT 06/M03 A3006 RMK A01 T00571033  RH  052%=      5-min Rain = 0
KOD1 180129Z 19007KT 06/M03 A3006 RMK A01 T00581033  RH  052%=      5-min Rain = 0
KOD1 180130Z 19007KT 06/M03 A3006 RMK A01 T00591033  RH  052%=      5-min Rain = 0
KOD1 180131Z 19007KT 06/M03 A3006 RMK A01 T00591033  RH  052%=      5-min Rain = 0
KOD1 180132Z 19007KT 06/M03 A3006 RMK A01 T00591034  RH  051%=      5-min Rain = 0
KOD1 180133Z 20007KT 06/M03 A3006 RMK A01 T00601034  RH  051%=      5-min Rain = 0
KOD1 180134Z 19007KT 06/M03 A3006 RMK A01 T00611034  RH  051%=      5-min Rain = 0
KOD1 180135Z 20007KT 06/M04 A3006 RMK A01 T00601035  RH  051%=      5-min Rain = 0
KOD1 180136Z 20007KT 06/M04 A3007 RMK A01 T00601035  RH  051%=      5-min Rain = 0
KOD1 180137Z 20007KT 06/M04 A3007 RMK A01 T00601035  RH  050%=      5-min Rain = 0
KOD1 180138Z 20008KT 06/M04 A3007 RMK A01 T00611035  RH  050%=      5-min Rain = 0
KOD1 180139Z 20007KT 06/M04 A3007 RMK A01 T00601035  RH  051%=      5-min Rain = 0
KOD1 180140Z 20007KT 06/M03 A3007 RMK A01 T00601034  RH  051%=      5-min Rain = 0
KOD1 180141Z 19007KT 06/M03 A3007 RMK A01 T00591034  RH  051%=      5-min Rain = 0
KOD1 180142Z 19007KT 06/M03 A3007 RMK A01 T00591034  RH  051%=      5-min Rain = 0
KOD1 180143Z 19007KT 06/M03 A3007 RMK A01 T00591034  RH  051%=      5-min Rain = 0
KOD1 180144Z 19007KT 06/M03 A3007 RMK A01 T00581034  RH  051%=      5-min Rain = 0
KOD1 180145Z 20007KT 06/M04 A3007 RMK A01 T00591035  RH  051%=      5-min Rain = 0
KOD1 180146Z 20008KT 06/M04 A3007 RMK A01 T00591035  RH  051%=      5-min Rain = 0
KOD1 180147Z 20008KT 06/M04 A3007 RMK A01 T00601036  RH  050%=      5-min Rain = 0
KOD1 180148Z 20008KT 06/M04 A3007 RMK A01 T00621036  RH  049%=      5-min Rain = 0
KOD1 180149Z 20008KT 06/M04 A3007 RMK A01 T00641038  RH  048%=      5-min Rain = 0
KOD1 180150Z 20008KT 07/M04 A3007 RMK A01 T00651038  RH  048%=      5-min Rain = 0
KOD1 180151Z 20008KT 07/M04 A3007 RMK A01 T00651038  RH  048%=      5-min Rain = 0
KOD1 180152Z 20008KT 07/M04 A3007 RMK A01 T00661039  RH  047%=      5-min Rain = 0
KOD1 180153Z 20009KT 07/M04 A3007 RMK A01 T00661039  RH  047%=      5-min Rain = 0
KOD1 180154Z 20009KT 07/M04 A3007 RMK A01 T00661039  RH  047%=      5-min Rain = 0
KOD1 180155Z 20009KT 07/M04 A3007 RMK A01 T00661040  RH  047%=      5-min Rain = 0
KOD1 180156Z 19008KT 07/M04 A3007 RMK A01 T00661040  RH  047%=      5-min Rain = 0
KOD1 180157Z 19008KT 07/M04 A3007 RMK A01 T00671040  RH  047%=      5-min Rain = 0
KOD1 180158Z 19008KT 07/M04 A3007 RMK A01 T00661039  RH  047%=      5-min Rain = 0
KOD1 180159Z 19008KT 07/M04 A3007 RMK A01 T00651039  RH  047%=      5-min Rain = 0
KOD1 180200Z 19008KT 06/M04 A3007 RMK A01 T00641039  RH  048%=      5-min Rain = 0
KOD1 180201Z 19008KT 06/M04 A3007 RMK A01 T00641039  RH  048%=      5-min Rain = 0
KOD1 180202Z 19008KT 06/M04 A3007 RMK A01 T00641039  RH  048%=      5-min Rain = 0
KOD1 180203Z 19008KT 06/M04 A3007 RMK A01 T00641039  RH  048%=      5-min Rain = 0
KOD1 180204Z 19008KT 06/M04 A3006 RMK A01 T00631039  RH  048%=      5-min Rain = 0
KOD1 180205Z 19008KT 06/M04 A3006 RMK A01 T00641039  RH  048%=      5-min Rain = 0
KOD1 180206Z 19008KT 06/M04 A3006 RMK A01 T00641039  RH  048%=      5-min Rain = 0
KOD1 180207Z 19008KT 07/M04 A3006 RMK A01 T00651038  RH  048%=      5-min Rain = 0
KOD1 180208Z 19008KT 07/M04 A3006 RMK A01 T00651039  RH  048%=      5-min Rain = 0
KOD1 180209Z 19008KT 07/M04 A3006 RMK A01 T00651038  RH  048%=      5-min Rain = 0
KOD1 180210Z 19009KT 07/M04 A3006 RMK A01 T00661038  RH  047%=      5-min Rain = 0
KOD1 180211Z 19008KT 07/M04 A3006 RMK A01 T00671038  RH  047%=      5-min Rain = 0
KOD1 180212Z 19008KT 07/M04 A3006 RMK A01 T00671038  RH  047%=      5-min Rain = 0
KOD1 180213Z 19008KT 07/M04 A3006 RMK A01 T00671038  RH  047%=      5-min Rain = 0
KOD1 180214Z 19008KT 07/M04 A3006 RMK A01 T00661037  RH  048%=      5-min Rain = 0
KOD1 180215Z 19008KT 07/M04 A3006 RMK A01 T00671037  RH  047%=      5-min Rain = 0
KOD1 180216Z 19008KT 07/M04 A3006 RMK A01 T00681038  RH  047%=      5-min Rain = 0
KOD1 180217Z 19007KT 07/M04 A3006 RMK A01 T00681038  RH  047%=      5-min Rain = 0
KOD1 180218Z 19007KT 07/M04 A3006 RMK A01 T00661037  RH  048%=      5-min Rain = 0
KOD1 180219Z 19008KT 07/M04 A3006 RMK A01 T00661036  RH  048%=      5-min Rain = 0
KOD1 180220Z 19008KT 07/M04 A3006 RMK A01 T00651035  RH  049%=      5-min Rain = 0
KOD1 180221Z 19007KT 07/M04 A3006 RMK A01 T00651035  RH  049%=      5-min Rain = 0
KOD1 180222Z 19008KT 06/M03 A3006 RMK A01 T00631034  RH  050%=      5-min Rain = 0
KOD1 180223Z 19007KT 06/M03 A3006 RMK A01 T00611034  RH  051%=      5-min Rain = 0
KOD1 180224Z 19008KT 06/M03 A3006 RMK A01 T00601033  RH  051%=      5-min Rain = 0
KOD1 180225Z 19008KT 06/M03 A3006 RMK A01 T00591033  RH  052%=      5-min Rain = 0
KOD1 180226Z 19007KT 06/M03 A3006 RMK A01 T00581033  RH  052%=      5-min Rain = 0
KOD1 180227Z 19008KT 06/M03 A3006 RMK A01 T00571033  RH  052%=      5-min Rain = 0
KOD1 180228Z 19007KT 06/M03 A3006 RMK A01 T00571033  RH  052%=      5-min Rain = 0
KOD1 180229Z 19007KT 06/M03 A3006 RMK A01 T00571033  RH  052%=      5-min Rain = 0
KOD1 180230Z 19007KT 06/M03 A3006 RMK A01 T00571033  RH  052%=      5-min Rain = 0
KOD1 180231Z 19007KT 06/M03 A3006 RMK A01 T00561033  RH  053%=      5-min Rain = 0
KOD1 180232Z 19008KT 06/M03 A3006 RMK A01 T00561033  RH  053%=      5-min Rain = 0
KOD1 180233Z 19007KT 06/M03 A3006 RMK A01 T00561033  RH  053%=      5-min Rain = 0
KOD1 180234Z 19007KT 06/M03 A3006 RMK A01 T00561033  RH  053%=      5-min Rain = 0
KOD1 180235Z 19007KT 06/M03 A3006 RMK A01 T00551033  RH  053%=      5-min Rain = 0
KOD1 180236Z 19007KT 06/M03 A3006 RMK A01 T00551032  RH  053%=      5-min Rain = 0
KOD1 180237Z 19007KT 05/M03 A3006 RMK A01 T00541032  RH  054%=      5-min Rain = 0
KOD1 180238Z 19007KT 05/M03 A3006 RMK A01 T00541032  RH  054%=      5-min Rain = 0
KOD1 180239Z 19007KT 05/M03 A3006 RMK A01 T00541032  RH  054%=      5-min Rain = 0
KOD1 180240Z 19007KT 05/M03 A3006 RMK A01 T00541032  RH  054%=      5-min Rain = 0
KOD1 180241Z 19007KT 05/M03 A3006 RMK A01 T00541032  RH  054%=      5-min Rain = 0
KOD1 180242Z 19007KT 05/M03 A3006 RMK A01 T00531032  RH  054%=      5-min Rain = 0
KOD1 180243Z 19007KT 05/M03 A3006 RMK A01 T00531032  RH  054%=      5-min Rain = 0
KOD1 180244Z 19007KT 05/M03 A3006 RMK A01 T00531032  RH  054%=      5-min Rain = 0
KOD1 180245Z 19008KT 05/M03 A3006 RMK A01 T00531032  RH  054%=      5-min Rain = 0
KOD1 180246Z 19008KT 06/M03 A3006 RMK A01 T00551033  RH  053%=      5-min Rain = 0
KOD1 180247Z 20008KT 06/M03 A3006 RMK A01 T00571033  RH  052%=      5-min Rain = 0
KOD1 180248Z 20008KT 06/M03 A3006 RMK A01 T00571033  RH  052%=      5-min Rain = 0
KOD1 180249Z 20007KT 06/M03 A3006 RMK A01 T00571034  RH  052%=      5-min Rain = 0
KOD1 180250Z 21006KT 06/M04 A3006 RMK A01 T00571035  RH  052%=      5-min Rain = 0
KOD1 180251Z 21006KT 05/M04 A3006 RMK A01 T00531035  RH  053%=      5-min Rain = 0
KOD1 180252Z 21006KT 05/M04 A3006 RMK A01 T00471036  RH  055%=      5-min Rain = 0
KOD1 180253Z 20007KT 04/M04 A3006 RMK A01 T00421036  RH  057%=      5-min Rain = 0
KOD1 180254Z 21006KT 04/M04 A3006 RMK A01 T00381036  RH  058%=      5-min Rain = 0
KOD1 180255Z 21006KT 04/M04 A3006 RMK A01 T00351036  RH  060%=      5-min Rain = 0
KOD1 180256Z 21007KT 03/M04 A3006 RMK A01 T00331036  RH  060%=      5-min Rain = 0
KOD1 180257Z 21006KT 03/M04 A3006 RMK A01 T00311035  RH  062%=      5-min Rain = 0
KOD1 180258Z 21006KT 03/M04 A3006 RMK A01 T00301035  RH  062%=      5-min Rain = 0
KOD1 180259Z 21006KT 03/M04 A3006 RMK A01 T00281036  RH  063%=      5-min Rain = 0
KOD1 180300Z 21006KT 03/M04 A3006 RMK A01 T00271035  RH  064%=      5-min Rain = 0
KOD1 180301Z 21006KT 03/M04 A3006 RMK A01 T00271035  RH  064%=      5-min Rain = 0
KOD1 180302Z 22006KT 03/M04 A3006 RMK A01 T00271036  RH  063%=      5-min Rain = 0
KOD1 180303Z 22006KT 03/M04 A3005 RMK A01 T00271036  RH  063%=      5-min Rain = 0
KOD1 180304Z 21007KT 03/M04 A3005 RMK A01 T00271036  RH  063%=      5-min Rain = 0
KOD1 180305Z 21007KT 03/M04 A3005 RMK A01 T00291036  RH  062%=      5-min Rain = 0
KOD1 180306Z 21007KT 03/M04 A3005 RMK A01 T00321036  RH  061%=      5-min Rain = 0
KOD1 180307Z 21007KT 03/M04 A3005 RMK A01 T00331036  RH  060%=      5-min Rain = 0
KOD1 180308Z 21007KT 03/M04 A3005 RMK A01 T00341036  RH  060%=      5-min Rain = 0
KOD1 180309Z 21007KT 03/M04 A3005 RMK A01 T00341037  RH  060%=      5-min Rain = 0
KOD1 180310Z 21007KT 03/M04 A3005 RMK A01 T00331037  RH  060%=      5-min Rain = 0
KOD1 180311Z 21007KT 03/M04 A3005 RMK A01 T00321036  RH  061%=      5-min Rain = 0
KOD1 180312Z 21006KT 03/M04 A3005 RMK A01 T00301037  RH  061%=      5-min Rain = 0
KOD1 180313Z 20006KT 03/M04 A3005 RMK A01 T00291037  RH  062%=      5-min Rain = 0
KOD1 180314Z 20006KT 03/M04 A3005 RMK A01 T00281036  RH  063%=      5-min Rain = 0
KOD1 180315Z 20006KT 03/M04 A3005 RMK A01 T00271037  RH  063%=      5-min Rain = 0
KOD1 180316Z 19005KT 03/M04 A3005 RMK A01 T00261036  RH  064%=      5-min Rain = 0
KOD1 180317Z 19005KT 02/M04 A3005 RMK A01 T00241036  RH  064%=      5-min Rain = 0
KOD1 180318Z 19005KT 02/M04 A3005 RMK A01 T00231035  RH  065%=      5-min Rain = 0
KOD1 180319Z 19006KT 02/M04 A3005 RMK A01 T00221035  RH  066%=      5-min Rain = 0
KOD1 180320Z 19006KT 02/M04 A3005 RMK A01 T00211035  RH  067%=      5-min Rain = 0
KOD1 180321Z 20006KT 02/M03 A3005 RMK A01 T00211034  RH  067%=      5-min Rain = 0
KOD1 180322Z 19006KT 02/M04 A3005 RMK A01 T00211035  RH  067%=      5-min Rain = 0
KOD1 180323Z 19005KT 02/M04 A3005 RMK A01 T00211035  RH  066%=      5-min Rain = 0
KOD1 180324Z 19005KT 02/M04 A3005 RMK A01 T00221035  RH  066%=      5-min Rain = 0
KOD1 180325Z 19005KT 03/M03 A3005 RMK A01 T00251034  RH  065%=      5-min Rain = 0
KOD1 180326Z 19005KT 03/M04 A3005 RMK A01 T00271035  RH  064%=      5-min Rain = 0
KOD1 180327Z 20005KT 03/M04 A3005 RMK A01 T00261035  RH  064%=      5-min Rain = 0
KOD1 180328Z 19005KT 03/M04 A3005 RMK A01 T00261035  RH  064%=      5-min Rain = 0
KOD1 180329Z 20005KT 03/M04 A3005 RMK A01 T00261035  RH  064%=      5-min Rain = 0
KOD1 180330Z 20005KT 03/M04 A3005 RMK A01 T00251036  RH  064%=      5-min Rain = 0
KOD1 180331Z 20005KT 02/M04 A3005 RMK A01 T00241037  RH  064%=      5-min Rain = 0
KOD1 180332Z 19005KT 02/M04 A3005 RMK A01 T00221037  RH  065%=      5-min Rain = 0
KOD1 180333Z 19005KT 02/M04 A3005 RMK A01 T00211037  RH  065%=      5-min Rain = 0
KOD1 180334Z 19004KT 02/M04 A3005 RMK A01 T00201038  RH  066%=      5-min Rain = 0
KOD1 180335Z 19005KT 02/M04 A3005 RMK A01 T00191038  RH  066%=      5-min Rain = 0
KOD1 180336Z 19005KT 02/M04 A3005 RMK A01 T00181038  RH  067%=      5-min Rain = 0
KOD1 180337Z 19005KT 02/M04 A3005 RMK A01 T00181038  RH  067%=      5-min Rain = 0
KOD1 180338Z 19005KT 02/M04 A3005 RMK A01 T00171038  RH  067%=      5-min Rain = 0
KOD1 180339Z 19005KT 02/M04 A3004 RMK A01 T00171037  RH  067%=      5-min Rain = 0
KOD1 180340Z 19005KT 02/M04 A3004 RMK A01 T00171036  RH  068%=      5-min Rain = 0
KOD1 180341Z 19006KT 02/M04 A3005 RMK A01 T00181036  RH  067%=      5-min Rain = 0
KOD1 180342Z 19005KT 02/M04 A3004 RMK A01 T00191036  RH  067%=      5-min Rain = 0
KOD1 180343Z 19005KT 02/M04 A3004 RMK A01 T00211035  RH  066%=      5-min Rain = 0
KOD1 180344Z 19006KT 02/M03 A3004 RMK A01 T00231034  RH  066%=      5-min Rain = 0
KOD1 180345Z 19006KT 03/M03 A3004 RMK A01 T00271034  RH  064%=      5-min Rain = 0
KOD1 180346Z 19005KT 03/M03 A3004 RMK A01 T00301034  RH  063%=      5-min Rain = 0
KOD1 180347Z 19005KT 03/M03 A3004 RMK A01 T00311034  RH  062%=      5-min Rain = 0
KOD1 180348Z 19005KT 03/M03 A3004 RMK A01 T00311034  RH  062%=      5-min Rain = 0
KOD1 180349Z 19006KT 03/M03 A3004 RMK A01 T00331033  RH  062%=      5-min Rain = 0
KOD1 180350Z 19006KT 03/M03 A3004 RMK A01 T00341033  RH  061%=      5-min Rain = 0
KOD1 180351Z 19006KT 04/M03 A3004 RMK A01 T00351033  RH  061%=      5-min Rain = 0
KOD1 180352Z 19005KT 04/M03 A3004 RMK A01 T00371033  RH  061%=      5-min Rain = 0
KOD1 180353Z 19005KT 04/M03 A3004 RMK A01 T00371033  RH  060%=      5-min Rain = 0
KOD1 180354Z 19005KT 04/M03 A3004 RMK A01 T00371034  RH  060%=      5-min Rain = 0
KOD1 180355Z 19005KT 04/M04 A3004 RMK A01 T00351036  RH  060%=      5-min Rain = 0
KOD1 180356Z 19006KT 04/M03 A3004 RMK A01 T00361034  RH  060%=      5-min Rain = 0
KOD1 180357Z 19006KT 04/M03 A3004 RMK A01 T00381033  RH  060%=      5-min Rain = 0
KOD1 180358Z 19006KT 04/M03 A3004 RMK A01 T00401033  RH  059%=      5-min Rain = 0
KOD1 180359Z 19006KT 04/M03 A3004 RMK A01 T00411034  RH  058%=      5-min Rain = 0
KOD1 180400Z 19006KT 04/M04 A3004 RMK A01 T00401035  RH  058%=      5-min Rain = 0
KOD1 180401Z 20006KT 04/M04 A3004 RMK A01 T00381035  RH  059%=      5-min Rain = 0
KOD1 180402Z 20004KT 04/M04 A3004 RMK A01 T00381035  RH  059%=      5-min Rain = 0
KOD1 180403Z 20004KT 03/M04 A3004 RMK A01 T00331037  RH  060%=      5-min Rain = 0
KOD1 180404Z 20005KT 03/M04 A3004 RMK A01 T00291038  RH  062%=      5-min Rain = 0
KOD1 180405Z 20006KT 03/M04 A3004 RMK A01 T00251039  RH  063%=      5-min Rain = 0
KOD1 180406Z 20007KT 02/M04 A3004 RMK A01 T00201040  RH  065%=      5-min Rain = 0
KOD1 180407Z 20007KT 02/M04 A3004 RMK A01 T00171039  RH  066%=      5-min Rain = 0
KOD1 180408Z 20007KT 02/M04 A3004 RMK A01 T00151038  RH  068%=      5-min Rain = 0
KOD1 180409Z 20007KT 02/M04 A3004 RMK A01 T00151037  RH  068%=      5-min Rain = 0
KOD1 180410Z 20007KT 02/M04 A3004 RMK A01 T00151037  RH  068%=      5-min Rain = 0
KOD1 180411Z 20007KT 02/M04 A3004 RMK A01 T00151037  RH  068%=      5-min Rain = 0
KOD1 180412Z 19007KT 02/M04 A3004 RMK A01 T00151037  RH  069%=      5-min Rain = 0
KOD1 180413Z 19007KT 02/M04 A3004 RMK A01 T00161036  RH  069%=      5-min Rain = 0
KOD1 180414Z 19007KT 02/M04 A3004 RMK A01 T00171035  RH  068%=      5-min Rain = 0
KOD1 180415Z 20006KT 02/M04 A3004 RMK A01 T00181036  RH  067%=      5-min Rain = 0
KOD1 180416Z 19006KT 02/M04 A3004 RMK A01 T00181036  RH  067%=      5-min Rain = 0
KOD1 180417Z 19005KT 02/M04 A3004 RMK A01 T00171037  RH  068%=      5-min Rain = 0
KOD1 180418Z 19005KT 02/M04 A3004 RMK A01 T00151038  RH  068%=      5-min Rain = 0
KOD1 180419Z 19005KT 02/M04 A3004 RMK A01 T00151037  RH  068%=      5-min Rain = 0
KOD1 180420Z 19005KT 02/M04 A3004 RMK A01 T00151036  RH  069%=      5-min Rain = 0
KOD1 180421Z 19004KT 02/M04 A3004 RMK A01 T00151036  RH  069%=      5-min Rain = 0
KOD1 180422Z 19004KT 02/M04 A3004 RMK A01 T00151037  RH  068%=      5-min Rain = 0
KOD1 180423Z 19004KT 01/M04 A3004 RMK A01 T00141038  RH  068%=      5-min Rain = 0
KOD1 180424Z 19004KT 01/M04 A3003 RMK A01 T00141037  RH  069%=      5-min Rain = 0
KOD1 180425Z 20004KT 01/M04 A3003 RMK A01 T00141037  RH  069%=      5-min Rain = 0
KOD1 180426Z 20004KT 01/M04 A3003 RMK A01 T00131037  RH  069%=      5-min Rain = 0
KOD1 180427Z 20004KT 01/M04 A3004 RMK A01 T00121037  RH  070%=      5-min Rain = 0
KOD1 180428Z 20005KT 01/M04 A3004 RMK A01 T00121037  RH  070%=      5-min Rain = 0
KOD1 180429Z 20005KT 01/M04 A3004 RMK A01 T00121037  RH  070%=      5-min Rain = 0
KOD1 180430Z 21005KT 01/M04 A3004 RMK A01 T00111038  RH  070%=      5-min Rain = 0
KOD1 180431Z 21006KT 01/M04 A3004 RMK A01 T00101039  RH  070%=      5-min Rain = 0
KOD1 180432Z 21006KT 01/M04 A3004 RMK A01 T00091039  RH  070%=      5-min Rain = 0
KOD1 180433Z 21006KT 01/M04 A3004 RMK A01 T00091039  RH  070%=      5-min Rain = 0
KOD1 180434Z 21006KT 01/M04 A3004 RMK A01 T00091039  RH  070%=      5-min Rain = 0
KOD1 180435Z 21006KT 01/M04 A3004 RMK A01 T00091039  RH  070%=      5-min Rain = 0
KOD1 180436Z 21006KT 01/M04 A3003 RMK A01 T00111038  RH  070%=      5-min Rain = 0
KOD1 180437Z 21005KT 01/M04 A3003 RMK A01 T00121039  RH  069%=      5-min Rain = 0
KOD1 180438Z 21005KT 01/M04 A3003 RMK A01 T00131039  RH  068%=      5-min Rain = 0
KOD1 180439Z 21005KT 01/M04 A3003 RMK A01 T00131039  RH  068%=      5-min Rain = 0
KOD1 180440Z 22005KT 01/M04 A3003 RMK A01 T00141039  RH  068%=      5-min Rain = 0
KOD1 180441Z 22005KT 02/M04 A3003 RMK A01 T00151039  RH  067%=      5-min Rain = 0
KOD1 180442Z 22005KT 02/M04 A3003 RMK A01 T00161040  RH  067%=      5-min Rain = 0
KOD1 180443Z 22006KT 02/M04 A3003 RMK A01 T00161040  RH  066%=      5-min Rain = 0
KOD1 180444Z 22006KT 02/M04 A3003 RMK A01 T00161040  RH  066%=      5-min Rain = 0
KOD1 180445Z 22006KT 02/M04 A3003 RMK A01 T00171041  RH  066%=      5-min Rain = 0
KOD1 180446Z 22006KT 02/M04 A3003 RMK A01 T00171041  RH  065%=      5-min Rain = 0
KOD1 180447Z 22006KT 02/M04 A3003 RMK A01 T00171041  RH  065%=      5-min Rain = 0
KOD1 180448Z 22006KT 02/M04 A3003 RMK A01 T00171041  RH  065%=      5-min Rain = 0
KOD1 180449Z 22006KT 02/M04 A3003 RMK A01 T00181042  RH  065%=      5-min Rain = 0
KOD1 180450Z 22006KT 02/M04 A3003 RMK A01 T00181042  RH  065%=      5-min Rain = 0
KOD1 180451Z 22006KT 02/M04 A3003 RMK A01 T00171042  RH  065%=      5-min Rain = 0
KOD1 180452Z 22006KT 02/M04 A3003 RMK A01 T00171042  RH  065%=      5-min Rain = 0
KOD1 180453Z 22006KT 02/M04 A3003 RMK A01 T00181042  RH  065%=      5-min Rain = 0
KOD1 180454Z 22006KT 02/M04 A3003 RMK A01 T00181042  RH  065%=      5-min Rain = 0
KOD1 180455Z 21006KT 02/M04 A3003 RMK A01 T00181042  RH  065%=      5-min Rain = 0
KOD1 180456Z 21006KT 02/M04 A3003 RMK A01 T00181041  RH  065%=      5-min Rain = 0
KOD1 180457Z 21006KT 02/M04 A3003 RMK A01 T00161041  RH  065%=      5-min Rain = 0
KOD1 180458Z 21006KT 02/M04 A3003 RMK A01 T00151041  RH  066%=      5-min Rain = 0
KOD1 180459Z 21006KT 01/M04 A3003 RMK A01 T00141040  RH  067%=      5-min Rain = 0
KOD1 180500Z 21006KT 01/M04 A3003 RMK A01 T00131039  RH  068%=      5-min Rain = 0
KOD1 180501Z 21006KT 01/M04 A3003 RMK A01 T00131038  RH  069%=      5-min Rain = 0
KOD1 180502Z 21006KT 01/M04 A3003 RMK A01 T00121039  RH  069%=      5-min Rain = 0
KOD1 180503Z 21006KT 01/M04 A3003 RMK A01 T00121038  RH  069%=      5-min Rain = 0
KOD1 180504Z 22006KT 01/M04 A3003 RMK A01 T00131038  RH  069%=      5-min Rain = 0
KOD1 180505Z 21007KT 01/M04 A3003 RMK A01 T00141039  RH  068%=      5-min Rain = 0
KOD1 180506Z 21006KT 01/M04 A3003 RMK A01 T00141040  RH  068%=      5-min Rain = 0
KOD1 180507Z 21006KT 01/M04 A3003 RMK A01 T00141039  RH  068%=      5-min Rain = 0
KOD1 180508Z 21006KT 01/M04 A3003 RMK A01 T00131040  RH  067%=      5-min Rain = 0
KOD1 180509Z 21006KT 01/M04 A3003 RMK A01 T00131040  RH  068%=      5-min Rain = 0
KOD1 180510Z 21006KT 01/M04 A3003 RMK A01 T00141040  RH  067%=      5-min Rain = 0
KOD1 180511Z 21006KT 01/M04 A3003 RMK A01 T00141040  RH  067%=      5-min Rain = 0
KOD1 180512Z 21006KT 01/M04 A3003 RMK A01 T00141040  RH  067%=      5-min Rain = 0
KOD1 180513Z 21006KT 01/M04 A3003 RMK A01 T00141040  RH  068%=      5-min Rain = 0
KOD1 180514Z 21006KT 01/M04 A3003 RMK A01 T00141040  RH  068%=      5-min Rain = 0
KOD1 180515Z 21006KT 01/M04 A3003 RMK A01 T00131040  RH  068%=      5-min Rain = 0
KOD1 180516Z 21006KT 01/M04 A3002 RMK A01 T00121040  RH  068%=      5-min Rain = 0
KOD1 180517Z 20005KT 01/M04 A3002 RMK A01 T00121039  RH  069%=      5-min Rain = 0
KOD1 180518Z 21005KT 01/M04 A3002 RMK A01 T00121039  RH  069%=      5-min Rain = 0
KOD1 180519Z 21005KT 01/M04 A3002 RMK A01 T00111039  RH  070%=      5-min Rain = 0
KOD1 180520Z 21005KT 01/M04 A3002 RMK A01 T00111038  RH  070%=      5-min Rain = 0
KOD1 180521Z 21005KT 01/M04 A3002 RMK A01 T00101038  RH  070%=      5-min Rain = 0
KOD1 180522Z 21006KT 01/M04 A3002 RMK A01 T00091038  RH  071%=      5-min Rain = 0
KOD1 180523Z 22005KT 01/M04 A3002 RMK A01 T00101037  RH  071%=      5-min Rain = 0
KOD1 180524Z 21006KT 01/M04 A3002 RMK A01 T00101038  RH  071%=      5-min Rain = 0
KOD1 180525Z 21006KT 01/M04 A3002 RMK A01 T00091037  RH  071%=      5-min Rain = 0
KOD1 180526Z 22006KT 01/M04 A3002 RMK A01 T00091038  RH  071%=      5-min Rain = 0
KOD1 180527Z 21007KT 01/M04 A3002 RMK A01 T00091039  RH  071%=      5-min Rain = 0
KOD1 180528Z 22007KT 01/M04 A3002 RMK A01 T00091039  RH  071%=      5-min Rain = 0
KOD1 180529Z 22007KT 01/M04 A3002 RMK A01 T00101038  RH  070%=      5-min Rain = 0
KOD1 180530Z 22007KT 01/M04 A3002 RMK A01 T00101039  RH  070%=      5-min Rain = 0
KOD1 180531Z 22007KT 01/M04 A3002 RMK A01 T00101040  RH  070%=      5-min Rain = 0
KOD1 180532Z 22007KT 01/M04 A3001 RMK A01 T00091040  RH  070%=      5-min Rain = 0
KOD1 180533Z 22007KT 01/M04 A3001 RMK A01 T00071041  RH  070%=      5-min Rain = 0
KOD1 180534Z 22007KT 01/M04 A3001 RMK A01 T00071040  RH  071%=      5-min Rain = 0
KOD1 180535Z 22006KT 01/M04 A3001 RMK A01 T00071039  RH  071%=      5-min Rain = 0
KOD1 180536Z 22006KT 01/M04 A3001 RMK A01 T00071039  RH  071%=      5-min Rain = 0
KOD1 180537Z 22006KT 01/M04 A3001 RMK A01 T00071039  RH  071%=      5-min Rain = 0
KOD1 180538Z 21005KT 01/M04 A3001 RMK A01 T00071039  RH  071%=      5-min Rain = 0
KOD1 180539Z 21006KT 01/M04 A3001 RMK A01 T00061039  RH  072%=      5-min Rain = 0
KOD1 180540Z 21006KT 01/M04 A3001 RMK A01 T00051039  RH  072%=      5-min Rain = 0
KOD1 180541Z 21006KT 01/M04 A3001 RMK A01 T00051039  RH  073%=      5-min Rain = 0
KOD1 180542Z 21006KT 01/M04 A3001 RMK A01 T00051038  RH  073%=      5-min Rain = 0
KOD1 180543Z 21006KT 01/M04 A3001 RMK A01 T00061038  RH  073%=      5-min Rain = 0
KOD1 180544Z 21006KT 01/M04 A3001 RMK A01 T00051039  RH  072%=      5-min Rain = 0
KOD1 180545Z 21006KT 01/M04 A3001 RMK A01 T00051039  RH  073%=      5-min Rain = 0
KOD1 180546Z 21006KT 01/M04 A3001 RMK A01 T00051038  RH  073%=      5-min Rain = 0
KOD1 180547Z 21007KT 01/M04 A3001 RMK A01 T00051039  RH  072%=      5-min Rain = 0
KOD1 180548Z 21007KT 01/M04 A3001 RMK A01 T00051038  RH  073%=      5-min Rain = 0
KOD1 180549Z 21007KT 00/M04 A3001 RMK A01 T00041039  RH  073%=      5-min Rain = 0
KOD1 180550Z 21007KT 00/M04 A3001 RMK A01 T00041038  RH  073%=      5-min Rain = 0
KOD1 180551Z 21007KT 01/M04 A3001 RMK A01 T00051037  RH  073%=      5-min Rain = 0
KOD1 180552Z 22007KT 01/M04 A3001 RMK A01 T00061037  RH  073%=      5-min Rain = 0
KOD1 180553Z 22008KT 01/M04 A3001 RMK A01 T00061037  RH  073%=      5-min Rain = 0
KOD1 180554Z 22008KT 01/M04 A3001 RMK A01 T00071037  RH  073%=      5-min Rain = 0
KOD1 180555Z 22007KT 01/M04 A3001 RMK A01 T00081037  RH  072%=      5-min Rain = 0
KOD1 180556Z 22007KT 01/M04 A3001 RMK A01 T00071037  RH  072%=      5-min Rain = 0
KOD1 180557Z 22007KT 01/M04 A3001 RMK A01 T00061037  RH  072%=      5-min Rain = 0
KOD1 180558Z 22006KT 01/M04 A3001 RMK A01 T00061037  RH  073%=      5-min Rain = 0
KOD1 180559Z 22006KT 01/M04 A3001 RMK A01 T00051037  RH  073%=      5-min Rain = 0

Page generated in 0.125 seconds.